Time,TemperatureF,DewpointF,PressureIn,WindDirection,WindDirectionDegrees,WindSpeedMPH,WindSpeedGustMPH,Humidity,HourlyPrecipIn,Conditions,Clouds,dailyrainin,SoftwareType,DateUTC
2013-12-03 00:02:00,35.9,34.6,29.69,ESE,105,13.0,13.0,95,0.00,,,0.14,Wunderground v.1.15,2013-12-03 06:02:00,
2013-12-03 00:03:00,35.9,34.6,29.69,SE,124,6.0,13.0,95,0.00,,,0.14,Wunderground v.1.15,2013-12-03 06:03:00,
2013-12-03 00:04:00,35.9,34.6,29.69,SE,141,4.0,13.0,95,0.00,,,0.14,Wunderground v.1.15,2013-12-03 06:04:00,
2013-12-03 00:05:00,35.9,34.6,29.69,SE,142,4.0,13.0,95,0.00,,,0.14,Wunderground v.1.15,2013-12-03 06:05:00,
2013-12-03 00:06:00,35.9,34.6,29.68,East,99,5.0,13.0,95,0.00,,,0.14,Wunderground v.1.15,2013-12-03 06:06:00,
2013-12-03 00:09:00,35.9,34.6,29.68,SE,131,11.0,13.0,95,0.00,,,0.14,Wunderground v.1.15,2013-12-03 06:09:00,
2013-12-03 00:12:00,35.9,34.6,29.68,SE,132,6.0,7.0,95,0.00,,,0.14,Wunderground v.1.15,2013-12-03 06:12:00,
2013-12-03 00:13:00,35.9,34.6,29.68,SE,132,7.0,7.0,95,0.00,,,0.14,Wunderground v.1.15,2013-12-03 06:13:00,
2013-12-03 00:14:00,35.9,34.6,29.68,ESE,114,5.0,7.0,95,0.00,,,0.14,Wunderground v.1.15,2013-12-03 06:14:00,
2013-12-03 00:15:00,35.9,34.6,29.68,SE,132,5.0,7.0,95,0.00,,,0.14,Wunderground v.1.15,2013-12-03 06:15:00,
2013-12-03 00:16:00,35.9,34.6,29.68,ESE,114,8.0,8.0,95,0.00,,,0.14,Wunderground v.1.15,2013-12-03 06:16:00,
2013-12-03 00:19:00,36.0,34.7,29.68,SSE,148,5.0,9.0,95,0.00,,,0.14,Wunderground v.1.15,2013-12-03 06:19:00,
2013-12-03 00:22:00,36.0,34.7,29.68,SSE,158,5.0,7.0,95,0.00,,,0.14,Wunderground v.1.15,2013-12-03 06:22:00,
2013-12-03 00:24:00,36.0,34.7,29.68,SE,130,4.0,7.0,95,0.00,,,0.14,Wunderground v.1.15,2013-12-03 06:24:00,
2013-12-03 00:25:00,36.0,34.7,29.68,SE,127,6.0,7.0,95,0.00,,,0.14,Wunderground v.1.15,2013-12-03 06:25:00,
2013-12-03 00:26:00,36.0,34.7,29.68,SSE,152,4.0,7.0,95,0.00,,,0.14,Wunderground v.1.15,2013-12-03 06:26:00,
2013-12-03 00:27:00,36.0,34.7,29.68,SE,124,5.0,7.0,95,0.00,,,0.14,Wunderground v.1.15,2013-12-03 06:27:00,
2013-12-03 00:29:00,36.0,34.7,29.68,East,100,5.0,7.0,95,0.00,,,0.14,Wunderground v.1.15,2013-12-03 06:29:00,
2013-12-03 00:33:00,35.9,34.6,29.68,SE,126,7.0,7.0,95,0.00,,,0.14,Wunderground v.1.15,2013-12-03 06:33:00,
2013-12-03 00:34:00,36.0,34.7,29.68,ESE,103,9.0,9.0,95,0.00,,,0.14,Wunderground v.1.15,2013-12-03 06:34:00,
2013-12-03 00:35:00,36.0,34.7,29.68,SE,134,10.0,10.0,95,0.00,,,0.14,Wunderground v.1.15,2013-12-03 06:35:00,
2013-12-03 00:36:00,35.9,34.6,29.68,SE,136,3.0,10.0,95,0.00,,,0.14,Wunderground v.1.15,2013-12-03 06:36:00,
2013-12-03 00:38:00,36.0,34.7,29.68,ESE,102,3.0,10.0,95,0.00,,,0.00,Wunderground v.1.15,2013-12-03 06:38:00,
2013-12-03 00:39:00,36.0,34.7,29.68,ESE,122,3.0,10.0,95,0.00,,,0.00,Wunderground v.1.15,2013-12-03 06:39:00,
2013-12-03 00:41:00,36.0,34.7,29.68,SE,135,3.0,6.0,95,0.00,,,0.00,Wunderground v.1.15,2013-12-03 06:41:00,
2013-12-03 00:44:00,35.9,34.6,29.68,SE,128,8.0,8.0,95,0.00,,,0.00,Wunderground v.1.15,2013-12-03 06:44:00,
2013-12-03 00:45:00,35.9,34.6,29.68,ESE,115,8.0,8.0,95,0.00,,,0.00,Wunderground v.1.15,2013-12-03 06:45:00,
2013-12-03 00:46:00,35.9,34.6,29.68,ESE,113,9.0,9.0,95,0.00,,,0.00,Wunderground v.1.15,2013-12-03 06:46:00,
2013-12-03 00:47:00,35.9,34.6,29.68,SE,134,6.0,9.0,95,0.00,,,0.00,Wunderground v.1.15,2013-12-03 06:47:00,
2013-12-03 00:48:00,35.9,34.6,29.68,SE,131,6.0,9.0,95,0.00,,,0.00,Wunderground v.1.15,2013-12-03 06:48:00,
2013-12-03 00:51:00,35.9,34.6,29.68,SE,129,6.0,10.0,95,0.00,,,0.00,Wunderground v.1.15,2013-12-03 06:51:00,
2013-12-03 00:53:00,35.9,34.6,29.67,SE,140,6.0,10.0,95,0.00,,,0.00,Wunderground v.1.15,2013-12-03 06:53:00,
2013-12-03 00:54:00,35.9,34.6,29.67,SE,130,3.0,10.0,95,0.00,,,0.00,Wunderground v.1.15,2013-12-03 06:54:00,
2013-12-03 00:55:00,35.9,34.6,29.67,SSE,148,3.0,10.0,95,0.00,,,0.00,Wunderground v.1.15,2013-12-03 06:55:00,
2013-12-03 00:58:00,35.9,34.6,29.67,SE,132,7.0,10.0,95,0.00,,,0.00,Wunderground v.1.15,2013-12-03 06:58:00,
2013-12-03 00:59:00,35.9,34.6,29.67,ESE,115,7.0,10.0,95,0.00,,,0.00,Wunderground v.1.15,2013-12-03 06:59:00,
2013-12-03 01:00:00,35.9,34.6,29.67,SE,132,8.0,8.0,95,0.00,,,0.00,Wunderground v.1.15,2013-12-03 07:00:00,
2013-12-03 01:02:00,35.9,34.6,29.67,East,98,11.0,11.0,95,0.00,,,0.00,Wunderground v.1.15,2013-12-03 07:02:00,
2013-12-03 01:04:00,35.9,34.6,29.67,ESE,120,3.0,11.0,95,0.00,,,0.00,Wunderground v.1.15,2013-12-03 07:04:00,
2013-12-03 01:07:00,35.9,34.6,29.67,SE,128,8.0,11.0,95,0.00,,,0.00,Wunderground v.1.15,2013-12-03 07:07:00,
2013-12-03 01:08:00,35.9,34.6,29.67,ESE,115,7.0,11.0,95,0.00,,,0.00,Wunderground v.1.15,2013-12-03 07:08:00,
2013-12-03 01:09:00,35.9,34.6,29.67,SE,134,6.0,11.0,95,0.00,,,0.00,Wunderground v.1.15,2013-12-03 07:09:00,
2013-12-03 01:10:00,35.9,34.6,29.67,ESE,122,5.0,6.0,95,0.00,,,0.00,Wunderground v.1.15,2013-12-03 07:10:00,
2013-12-03 01:12:00,35.9,34.6,29.67,SE,133,4.0,8.0,95,0.00,,,0.00,Wunderground v.1.15,2013-12-03 07:12:00,
2013-12-03 01:13:00,35.9,34.6,29.67,ESE,120,8.0,8.0,95,0.00,,,0.00,Wunderground v.1.15,2013-12-03 07:13:00,
2013-12-03 01:14:00,36.0,34.7,29.67,SE,126,6.0,8.0,95,0.00,,,0.00,Wunderground v.1.15,2013-12-03 07:14:00,
2013-12-03 01:16:00,36.0,34.7,29.67,East,95,9.0,9.0,95,0.00,,,0.00,Wunderground v.1.15,2013-12-03 07:16:00,
2013-12-03 01:17:00,36.0,34.7,29.67,ESE,123,9.0,9.0,95,0.00,,,0.00,Wunderground v.1.15,2013-12-03 07:17:00,
2013-12-03 01:20:00,36.0,34.7,29.67,SE,140,5.0,6.0,95,0.00,,,0.00,Wunderground v.1.15,2013-12-03 07:20:00,
2013-12-03 01:21:00,36.0,34.7,29.67,ESE,112,5.0,6.0,95,0.00,,,0.00,Wunderground v.1.15,2013-12-03 07:21:00,
2013-12-03 01:24:00,36.0,34.7,29.67,East,96,3.0,7.0,95,0.00,,,0.00,Wunderground v.1.15,2013-12-03 07:24:00,
2013-12-03 01:25:00,36.0,34.7,29.67,ESE,113,4.0,7.0,95,0.00,,,0.00,Wunderground v.1.15,2013-12-03 07:25:00,
2013-12-03 01:26:00,36.0,34.7,29.67,SE,131,4.0,7.0,95,0.00,,,0.00,Wunderground v.1.15,2013-12-03 07:26:00,
2013-12-03 01:30:00,36.0,34.7,29.67,SE,136,3.0,5.0,95,0.00,,,0.00,Wunderground v.1.15,2013-12-03 07:30:00,
2013-12-03 01:31:00,36.0,34.7,29.67,SE,130,3.0,5.0,95,0.00,,,0.00,Wunderground v.1.15,2013-12-03 07:31:00,
2013-12-03 01:33:00,36.0,34.7,29.67,East,88,3.0,6.0,95,0.00,,,0.00,Wunderground v.1.15,2013-12-03 07:33:00,
2013-12-03 01:34:00,36.0,34.7,29.67,ESE,106,3.0,6.0,95,0.00,,,0.00,Wunderground v.1.15,2013-12-03 07:34:00,
2013-12-03 01:38:00,36.0,34.7,29.68,SE,132,7.0,9.0,95,0.00,,,0.00,Wunderground v.1.15,2013-12-03 07:38:00,
2013-12-03 01:40:00,36.0,34.7,29.68,SE,137,5.0,5.0,95,0.00,,,0.00,Wunderground v.1.15,2013-12-03 07:40:00,
2013-12-03 01:43:00,36.0,34.7,29.68,SE,126,4.0,5.0,95,0.00,,,0.00,Wunderground v.1.15,2013-12-03 07:43:00,
2013-12-03 01:44:00,36.0,34.7,29.68,ESE,116,7.0,7.0,95,0.00,,,0.00,Wunderground v.1.15,2013-12-03 07:44:00,
2013-12-03 01:46:00,36.0,34.7,29.68,ESE,123,3.0,7.0,95,0.00,,,0.00,Wunderground v.1.15,2013-12-03 07:46:00,
2013-12-03 01:49:00,36.0,34.7,29.68,ESE,105,4.0,7.0,95,0.00,,,0.00,Wunderground v.1.15,2013-12-03 07:49:00,
2013-12-03 01:50:00,36.0,35.0,29.68,ESE,117,4.0,5.0,96,0.00,,,0.00,Wunderground v.1.15,2013-12-03 07:50:00,
2013-12-03 01:52:00,36.0,35.0,29.68,ESE,122,7.0,7.0,96,0.00,,,0.00,Wunderground v.1.15,2013-12-03 07:52:00,
2013-12-03 01:54:00,36.0,35.0,29.68,ESE,123,9.0,9.0,96,0.00,,,0.00,Wunderground v.1.15,2013-12-03 07:54:00,
2013-12-03 01:56:00,36.0,35.0,29.68,SSE,153,3.0,9.0,96,0.00,,,0.00,Wunderground v.1.15,2013-12-03 07:56:00,
2013-12-03 01:58:00,36.0,35.0,29.68,ESE,115,7.0,9.0,96,0.00,,,0.00,Wunderground v.1.15,2013-12-03 07:58:00,
2013-12-03 02:01:00,36.0,35.0,29.68,ESE,119,5.0,6.0,96,0.00,,,0.00,Wunderground v.1.15,2013-12-03 08:01:00,
2013-12-03 02:02:00,36.0,35.0,29.68,SE,139,4.0,8.0,96,0.00,,,0.00,Wunderground v.1.15,2013-12-03 08:02:00,
2013-12-03 02:03:00,36.2,35.2,29.68,SSE,150,8.0,8.0,96,0.00,,,0.00,Wunderground v.1.15,2013-12-03 08:03:00,
2013-12-03 02:06:00,36.2,35.2,29.68,ESE,121,7.0,9.0,96,0.00,,,0.00,Wunderground v.1.15,2013-12-03 08:06:00,
2013-12-03 02:07:00,36.0,35.0,29.67,SSE,158,8.0,11.0,96,0.00,,,0.00,Wunderground v.1.15,2013-12-03 08:07:00,
2013-12-03 02:10:00,36.0,35.0,29.67,SE,133,7.0,7.0,96,0.00,,,0.00,Wunderground v.1.15,2013-12-03 08:10:00,
2013-12-03 02:11:00,36.0,34.7,29.67,ESE,123,4.0,8.0,95,0.00,,,0.00,Wunderground v.1.15,2013-12-03 08:11:00,
2013-12-03 02:12:00,36.0,34.7,29.67,SE,130,5.0,8.0,95,0.00,,,0.00,Wunderground v.1.15,2013-12-03 08:12:00,
2013-12-03 02:16:00,36.0,34.7,29.67,ESE,123,7.0,9.0,95,0.00,,,0.00,Wunderground v.1.15,2013-12-03 08:16:00,
2013-12-03 02:17:00,36.0,34.7,29.67,ESE,116,7.0,9.0,95,0.00,,,0.00,Wunderground v.1.15,2013-12-03 08:17:00,
2013-12-03 02:18:00,36.0,34.7,29.67,SSE,159,4.0,9.0,95,0.00,,,0.00,Wunderground v.1.15,2013-12-03 08:18:00,
2013-12-03 02:22:00,36.0,35.0,29.67,SE,137,4.0,9.0,96,0.00,,,0.00,Wunderground v.1.15,2013-12-03 08:22:00,
2013-12-03 02:23:00,36.0,35.0,29.67,SE,132,6.0,10.0,96,0.00,,,0.00,Wunderground v.1.15,2013-12-03 08:23:00,
2013-12-03 02:24:00,36.0,35.0,29.67,SE,139,7.0,12.0,96,0.00,,,0.00,Wunderground v.1.15,2013-12-03 08:24:00,
2013-12-03 02:25:00,36.0,35.0,29.67,SE,131,8.0,12.0,96,0.00,,,0.00,Wunderground v.1.15,2013-12-03 08:25:00,
2013-12-03 02:27:00,36.0,35.0,29.67,ESE,117,3.0,12.0,96,0.00,,,0.00,Wunderground v.1.15,2013-12-03 08:27:00,
2013-12-03 02:28:00,36.0,35.0,29.67,SE,126,3.0,12.0,96,0.00,,,0.00,Wunderground v.1.15,2013-12-03 08:28:00,
2013-12-03 02:30:00,36.0,35.0,29.67,SSE,148,7.0,7.0,96,0.00,,,0.00,Wunderground v.1.15,2013-12-03 08:30:00,
2013-12-03 02:32:00,36.0,35.0,29.67,ESE,106,3.0,8.0,96,0.00,,,0.00,Wunderground v.1.15,2013-12-03 08:32:00,
2013-12-03 02:33:00,36.0,34.7,29.67,SSE,150,6.0,8.0,95,0.00,,,0.00,Wunderground v.1.15,2013-12-03 08:33:00,
2013-12-03 02:35:00,36.0,35.0,29.67,ESE,109,5.0,8.0,96,0.00,,,0.00,Wunderground v.1.15,2013-12-03 08:35:00,
2013-12-03 02:36:00,36.0,35.0,29.67,SE,144,3.0,8.0,96,0.00,,,0.00,Wunderground v.1.15,2013-12-03 08:36:00,
2013-12-03 02:37:00,36.0,35.0,29.67,SE,134,3.0,8.0,96,0.00,,,0.00,Wunderground v.1.15,2013-12-03 08:37:00,
2013-12-03 02:38:00,36.0,35.0,29.67,ESE,113,3.0,8.0,96,0.00,,,0.00,Wunderground v.1.15,2013-12-03 08:38:00,
2013-12-03 02:41:00,36.0,35.0,29.67,ESE,113,4.0,8.0,96,0.00,,,0.00,Wunderground v.1.15,2013-12-03 08:41:00,
2013-12-03 02:42:00,36.0,35.0,29.67,SSE,149,5.0,11.0,96,0.00,,,0.00,Wunderground v.1.15,2013-12-03 08:42:00,
2013-12-03 02:43:00,36.0,35.0,29.67,ESE,122,7.0,11.0,96,0.00,,,0.00,Wunderground v.1.15,2013-12-03 08:43:00,
2013-12-03 02:44:00,36.0,35.0,29.67,SE,140,4.0,11.0,96,0.00,,,0.00,Wunderground v.1.15,2013-12-03 08:44:00,
2013-12-03 02:46:00,36.0,35.0,29.67,SE,136,7.0,11.0,96,0.00,,,0.00,Wunderground v.1.15,2013-12-03 08:46:00,
2013-12-03 02:48:00,36.0,35.0,29.67,ESE,122,7.0,11.0,96,0.00,,,0.00,Wunderground v.1.15,2013-12-03 08:48:00,
2013-12-03 02:49:00,36.0,35.0,29.67,East,88,6.0,11.0,96,0.00,,,0.00,Wunderground v.1.15,2013-12-03 08:49:00,
2013-12-03 02:51:00,36.0,35.0,29.67,SE,131,4.0,9.0,96,0.00,,,0.00,Wunderground v.1.15,2013-12-03 08:51:00,
2013-12-03 02:53:00,36.0,35.0,29.67,ESE,119,8.0,9.0,96,0.00,,,0.00,Wunderground v.1.15,2013-12-03 08:53:00,
2013-12-03 02:54:00,36.0,35.0,29.67,SE,128,4.0,10.0,96,0.00,,,0.00,Wunderground v.1.15,2013-12-03 08:54:00,
2013-12-03 02:55:00,36.2,35.2,29.67,SE,125,6.0,10.0,96,0.00,,,0.00,Wunderground v.1.15,2013-12-03 08:55:00,
2013-12-03 02:56:00,36.2,35.2,29.67,SE,130,5.0,10.0,96,0.00,,,0.00,Wunderground v.1.15,2013-12-03 08:56:00,
2013-12-03 02:58:00,36.2,35.2,29.67,ESE,103,8.0,10.0,96,0.00,,,0.00,Wunderground v.1.15,2013-12-03 08:58:00,
2013-12-03 02:59:00,36.2,35.2,29.67,ESE,119,7.0,10.0,96,0.00,,,0.00,Wunderground v.1.15,2013-12-03 08:59:00,
2013-12-03 03:00:00,36.2,35.2,29.67,SE,126,5.0,10.0,96,0.00,,,0.00,Wunderground v.1.15,2013-12-03 09:00:00,
2013-12-03 03:01:00,36.2,35.2,29.67,ESE,123,7.0,10.0,96,0.00,,,0.00,Wunderground v.1.15,2013-12-03 09:01:00,
2013-12-03 03:04:00,36.2,35.2,29.67,ESE,119,3.0,11.0,96,0.00,,,0.00,Wunderground v.1.15,2013-12-03 09:04:00,
2013-12-03 03:05:00,36.2,35.2,29.67,SE,138,4.0,11.0,96,0.00,,,0.00,Wunderground v.1.15,2013-12-03 09:05:00,
2013-12-03 03:07:00,36.2,35.2,29.67,SE,126,6.0,11.0,96,0.00,,,0.00,Wunderground v.1.15,2013-12-03 09:07:00,
2013-12-03 03:09:00,36.3,35.3,29.67,SE,135,7.0,11.0,96,0.00,,,0.00,Wunderground v.1.15,2013-12-03 09:09:00,
2013-12-03 03:10:00,36.3,35.3,29.67,East,92,6.0,6.0,96,0.00,,,0.00,Wunderground v.1.15,2013-12-03 09:10:00,
2013-12-03 03:12:00,36.3,35.3,29.67,SE,130,5.0,6.0,96,0.00,,,0.00,Wunderground v.1.15,2013-12-03 09:12:00,
2013-12-03 03:14:00,36.3,35.3,29.67,SE,126,7.0,9.0,96,0.00,,,0.00,Wunderground v.1.15,2013-12-03 09:14:00,
2013-12-03 03:15:00,36.3,35.3,29.67,SE,126,6.0,9.0,96,0.00,,,0.00,Wunderground v.1.15,2013-12-03 09:15:00,
2013-12-03 03:16:00,36.3,35.3,29.67,SE,130,6.0,11.0,96,0.00,,,0.00,Wunderground v.1.15,2013-12-03 09:16:00,
2013-12-03 03:17:00,36.3,35.3,29.67,ESE,119,7.0,11.0,96,0.00,,,0.00,Wunderground v.1.15,2013-12-03 09:17:00,
2013-12-03 03:19:00,36.5,35.5,29.67,SE,131,5.0,11.0,96,0.00,,,0.00,Wunderground v.1.15,2013-12-03 09:19:00,
2013-12-03 03:20:00,36.5,35.5,29.67,SE,130,4.0,8.0,96,0.00,,,0.00,Wunderground v.1.15,2013-12-03 09:20:00,
2013-12-03 03:21:00,36.5,35.5,29.66,SSE,148,4.0,8.0,96,0.00,,,0.00,Wunderground v.1.15,2013-12-03 09:21:00,
2013-12-03 03:22:00,36.5,35.5,29.66,SSE,151,8.0,8.0,96,0.00,,,0.00,Wunderground v.1.15,2013-12-03 09:22:00,
2013-12-03 03:24:00,36.5,35.5,29.66,SE,126,5.0,8.0,96,0.00,,,0.00,Wunderground v.1.15,2013-12-03 09:24:00,
2013-12-03 03:25:00,36.5,35.5,29.66,SE,141,4.0,8.0,96,0.00,,,0.00,Wunderground v.1.15,2013-12-03 09:25:00,
2013-12-03 03:26:00,36.5,35.5,29.66,SSE,150,5.0,10.0,96,0.00,,,0.00,Wunderground v.1.15,2013-12-03 09:26:00,
2013-12-03 03:27:00,36.5,35.5,29.66,SE,137,7.0,10.0,96,0.00,,,0.00,Wunderground v.1.15,2013-12-03 09:27:00,
2013-12-03 03:30:00,36.5,35.5,29.66,SE,138,6.0,6.0,96,0.00,,,0.00,Wunderground v.1.15,2013-12-03 09:30:00,
2013-12-03 03:31:00,36.5,35.5,29.66,ESE,107,8.0,9.0,96,0.00,,,0.00,Wunderground v.1.15,2013-12-03 09:31:00,
2013-12-03 03:32:00,36.5,35.5,29.66,ESE,110,4.0,10.0,96,0.00,,,0.00,Wunderground v.1.15,2013-12-03 09:32:00,
2013-12-03 03:33:00,36.5,35.5,29.66,SSE,163,4.0,10.0,96,0.00,,,0.00,Wunderground v.1.15,2013-12-03 09:33:00,
2013-12-03 03:42:00,36.6,35.6,29.66,ESE,111,8.0,10.0,96,0.00,,,0.00,Wunderground v.1.15,2013-12-03 09:42:00,
2013-12-03 03:43:00,36.6,35.6,29.66,SE,142,8.0,10.0,96,0.00,,,0.00,Wunderground v.1.15,2013-12-03 09:43:00,
2013-12-03 03:48:00,36.6,35.6,29.66,ESE,114,7.0,10.0,96,0.00,,,0.00,Wunderground v.1.15,2013-12-03 09:48:00,
2013-12-03 03:49:00,36.6,35.6,29.66,SE,139,4.0,10.0,96,0.00,,,0.00,Wunderground v.1.15,2013-12-03 09:49:00,
2013-12-03 03:50:00,36.8,35.8,29.66,SE,143,7.0,7.0,96,0.00,,,0.00,Wunderground v.1.15,2013-12-03 09:50:00,
2013-12-03 03:53:00,36.8,35.8,29.65,ESE,113,4.0,7.0,96,0.00,,,0.00,Wunderground v.1.15,2013-12-03 09:53:00,
2013-12-03 03:55:00,36.8,35.8,29.65,SE,126,8.0,11.0,96,0.00,,,0.00,Wunderground v.1.15,2013-12-03 09:55:00,
2013-12-03 03:58:00,36.8,35.8,29.65,SE,126,7.0,12.0,96,0.00,,,0.00,Wunderground v.1.15,2013-12-03 09:58:00,
2013-12-03 04:00:00,36.9,35.9,29.65,ESE,108,9.0,9.0,96,0.00,,,0.00,Wunderground v.1.15,2013-12-03 10:00:00,
2013-12-03 04:01:00,36.9,35.9,29.65,SE,138,4.0,9.0,96,0.00,,,0.00,Wunderground v.1.15,2013-12-03 10:01:00,
2013-12-03 04:04:00,36.9,35.9,29.65,SE,142,8.0,11.0,96,0.00,,,0.00,Wunderground v.1.15,2013-12-03 10:04:00,
2013-12-03 04:05:00,36.9,35.9,29.65,SE,145,4.0,11.0,96,0.00,,,0.00,Wunderground v.1.15,2013-12-03 10:05:00,
2013-12-03 04:06:00,36.9,35.9,29.65,SE,137,4.0,11.0,96,0.00,,,0.00,Wunderground v.1.15,2013-12-03 10:06:00,
2013-12-03 04:09:00,36.9,35.9,29.65,SE,136,4.0,11.0,96,0.00,,,0.00,Wunderground v.1.15,2013-12-03 10:09:00,
2013-12-03 04:11:00,36.9,35.9,29.65,SSE,164,5.0,6.0,96,0.00,,,0.00,Wunderground v.1.15,2013-12-03 10:11:00,
2013-12-03 04:14:00,37.0,36.0,29.65,SE,128,6.0,9.0,96,0.00,,,0.00,Wunderground v.1.15,2013-12-03 10:14:00,
2013-12-03 04:15:00,37.0,36.0,29.65,SSE,148,4.0,9.0,96,0.00,,,0.00,Wunderground v.1.15,2013-12-03 10:15:00,
2013-12-03 04:16:00,37.0,36.0,29.65,SSE,153,6.0,11.0,96,0.00,,,0.00,Wunderground v.1.15,2013-12-03 10:16:00,
2013-12-03 04:17:00,37.0,36.0,29.65,SE,126,11.0,13.0,96,0.00,,,0.00,Wunderground v.1.15,2013-12-03 10:17:00,
2013-12-03 04:19:00,37.0,36.0,29.65,SSE,155,5.0,13.0,96,0.00,,,0.00,Wunderground v.1.15,2013-12-03 10:19:00,
2013-12-03 04:20:00,37.0,36.0,29.65,SE,135,6.0,9.0,96,0.00,,,0.00,Wunderground v.1.15,2013-12-03 10:20:00,
2013-12-03 04:21:00,37.2,36.2,29.64,South,169,5.0,9.0,96,0.00,,,0.00,Wunderground v.1.15,2013-12-03 10:21:00,
2013-12-03 04:23:00,37.2,36.2,29.64,SSE,155,3.0,9.0,96,0.00,,,0.00,Wunderground v.1.15,2013-12-03 10:23:00,
2013-12-03 04:24:00,37.0,36.0,29.64,SE,142,4.0,9.0,96,0.00,,,0.00,Wunderground v.1.15,2013-12-03 10:24:00,
2013-12-03 04:25:00,37.0,36.0,29.64,ESE,105,5.0,9.0,96,0.00,,,0.00,Wunderground v.1.15,2013-12-03 10:25:00,
2013-12-03 04:27:00,37.0,36.0,29.64,ESE,109,4.0,10.0,96,0.00,,,0.00,Wunderground v.1.15,2013-12-03 10:27:00,
2013-12-03 04:28:00,37.0,36.0,29.64,East,94,7.0,10.0,96,0.00,,,0.00,Wunderground v.1.15,2013-12-03 10:28:00,
2013-12-03 04:29:00,37.0,36.0,29.64,SE,133,5.0,10.0,96,0.00,,,0.00,Wunderground v.1.15,2013-12-03 10:29:00,
2013-12-03 04:30:00,37.0,36.0,29.64,SSE,154,7.0,7.0,96,0.00,,,0.00,Wunderground v.1.15,2013-12-03 10:30:00,
2013-12-03 04:32:00,37.0,36.0,29.64,ESE,108,4.0,9.0,96,0.00,,,0.00,Wunderground v.1.15,2013-12-03 10:32:00,
2013-12-03 04:33:00,37.0,36.0,29.64,SE,130,2.0,9.0,96,0.00,,,0.00,Wunderground v.1.15,2013-12-03 10:33:00,
2013-12-03 04:34:00,37.0,36.0,29.64,SE,125,5.0,9.0,96,0.00,,,0.00,Wunderground v.1.15,2013-12-03 10:34:00,
2013-12-03 04:35:00,37.0,36.0,29.64,East,94,8.0,9.0,96,0.00,,,0.00,Wunderground v.1.15,2013-12-03 10:35:00,
2013-12-03 04:36:00,37.0,36.0,29.64,ESE,121,9.0,9.0,96,0.00,,,0.00,Wunderground v.1.15,2013-12-03 10:36:00,
2013-12-03 04:37:00,37.0,36.0,29.64,ESE,114,7.0,9.0,96,0.00,,,0.00,Wunderground v.1.15,2013-12-03 10:37:00,
2013-12-03 04:38:00,37.0,36.0,29.64,ESE,119,5.0,9.0,96,0.00,,,0.00,Wunderground v.1.15,2013-12-03 10:38:00,
2013-12-03 04:39:00,37.0,36.0,29.64,SSE,149,5.0,9.0,96,0.00,,,0.00,Wunderground v.1.15,2013-12-03 10:39:00,
2013-12-03 04:40:00,37.0,36.0,29.64,SE,146,4.0,6.0,96,0.00,,,0.00,Wunderground v.1.15,2013-12-03 10:40:00,
2013-12-03 04:41:00,37.0,36.0,29.64,SE,144,5.0,6.0,96,0.00,,,0.00,Wunderground v.1.15,2013-12-03 10:41:00,
2013-12-03 04:43:00,37.0,36.0,29.64,SE,127,4.0,8.0,96,0.00,,,0.00,Wunderground v.1.15,2013-12-03 10:43:00,
2013-12-03 04:44:00,37.0,36.0,29.64,SE,138,5.0,8.0,96,0.00,,,0.00,Wunderground v.1.15,2013-12-03 10:44:00,
2013-12-03 04:46:00,37.0,36.0,29.64,SSE,150,7.0,8.0,96,0.00,,,0.00,Wunderground v.1.15,2013-12-03 10:46:00,
2013-12-03 04:49:00,37.2,36.2,29.64,SE,138,4.0,9.0,96,0.00,,,0.00,Wunderground v.1.15,2013-12-03 10:49:00,
2013-12-03 04:50:00,37.2,36.2,29.64,SE,126,6.0,6.0,96,0.00,,,0.00,Wunderground v.1.15,2013-12-03 10:50:00,
2013-12-03 04:51:00,37.2,36.2,29.64,ESE,123,3.0,10.0,96,0.00,,,0.00,Wunderground v.1.15,2013-12-03 10:51:00,
2013-12-03 04:52:00,37.2,36.2,29.65,SE,140,5.0,10.0,96,0.00,,,0.00,Wunderground v.1.15,2013-12-03 10:52:00,
2013-12-03 04:54:00,37.2,36.2,29.65,SE,128,6.0,10.0,96,0.00,,,0.00,Wunderground v.1.15,2013-12-03 10:54:00,
2013-12-03 04:55:00,37.2,36.2,29.65,SE,134,3.0,10.0,96,0.00,,,0.00,Wunderground v.1.15,2013-12-03 10:55:00,
2013-12-03 04:57:00,37.2,36.2,29.65,ESE,115,5.0,10.0,96,0.00,,,0.00,Wunderground v.1.15,2013-12-03 10:57:00,
2013-12-03 04:59:00,37.3,36.3,29.65,SE,137,5.0,10.0,96,0.00,,,0.00,Wunderground v.1.15,2013-12-03 10:59:00,
2013-12-03 05:00:00,37.3,36.3,29.65,SE,129,7.0,7.0,96,0.00,,,0.00,Wunderground v.1.15,2013-12-03 11:00:00,
2013-12-03 05:02:00,37.3,36.3,29.65,SE,124,6.0,9.0,96,0.00,,,0.00,Wunderground v.1.15,2013-12-03 11:02:00,
2013-12-03 05:03:00,37.3,36.3,29.65,East,100,6.0,9.0,96,0.00,,,0.00,Wunderground v.1.15,2013-12-03 11:03:00,
2013-12-03 05:04:00,37.3,36.3,29.65,SE,138,6.0,9.0,96,0.00,,,0.00,Wunderground v.1.15,2013-12-03 11:04:00,
2013-12-03 05:05:00,37.3,36.3,29.65,ESE,112,7.0,9.0,96,0.00,,,0.00,Wunderground v.1.15,2013-12-03 11:05:00,
2013-12-03 05:06:00,37.3,36.3,29.65,SE,133,4.0,9.0,96,0.00,,,0.00,Wunderground v.1.15,2013-12-03 11:06:00,
2013-12-03 05:08:00,37.3,36.3,29.64,ESE,119,4.0,9.0,96,0.00,,,0.00,Wunderground v.1.15,2013-12-03 11:08:00,
2013-12-03 05:10:00,37.3,36.3,29.64,SE,133,9.0,9.0,96,0.00,,,0.00,Wunderground v.1.15,2013-12-03 11:10:00,
2013-12-03 05:11:00,37.3,36.3,29.64,ESE,122,11.0,11.0,96,0.00,,,0.00,Wunderground v.1.15,2013-12-03 11:11:00,
2013-12-03 05:13:00,37.5,36.5,29.64,SE,140,6.0,11.0,96,0.00,,,0.00,Wunderground v.1.15,2013-12-03 11:13:00,
2013-12-03 05:15:00,37.5,36.5,29.64,SE,141,5.0,11.0,96,0.00,,,0.00,Wunderground v.1.15,2013-12-03 11:15:00,
2013-12-03 05:16:00,37.5,36.5,29.64,SSE,153,5.0,11.0,96,0.00,,,0.00,Wunderground v.1.15,2013-12-03 11:16:00,
2013-12-03 05:18:00,37.5,36.5,29.64,ESE,123,4.0,11.0,96,0.00,,,0.00,Wunderground v.1.15,2013-12-03 11:18:00,
2013-12-03 05:21:00,37.5,36.5,29.64,SE,128,9.0,10.0,96,0.00,,,0.00,Wunderground v.1.15,2013-12-03 11:21:00,
2013-12-03 05:23:00,37.5,36.5,29.64,SE,128,6.0,10.0,96,0.00,,,0.00,Wunderground v.1.15,2013-12-03 11:23:00,
2013-12-03 05:26:00,37.6,36.6,29.64,SE,126,5.0,10.0,96,0.00,,,0.00,Wunderground v.1.15,2013-12-03 11:26:00,
2013-12-03 05:27:00,37.6,36.6,29.64,ESE,107,5.0,10.0,96,0.00,,,0.00,Wunderground v.1.15,2013-12-03 11:27:00,
2013-12-03 05:28:00,37.6,36.6,29.64,ESE,115,4.0,10.0,96,0.00,,,0.00,Wunderground v.1.15,2013-12-03 11:28:00,
2013-12-03 05:29:00,37.6,36.6,29.64,SE,126,4.0,10.0,96,0.00,,,0.00,Wunderground v.1.15,2013-12-03 11:29:00,
2013-12-03 05:31:00,37.6,36.6,29.64,ESE,123,5.0,8.0,96,0.00,,,0.00,Wunderground v.1.15,2013-12-03 11:31:00,
2013-12-03 05:32:00,37.6,36.6,29.64,East,98,7.0,9.0,96,0.00,,,0.00,Wunderground v.1.15,2013-12-03 11:32:00,
2013-12-03 05:34:00,37.6,36.6,29.64,ESE,115,3.0,10.0,96,0.00,,,0.00,Wunderground v.1.15,2013-12-03 11:34:00,
2013-12-03 05:35:00,37.5,36.5,29.64,ESE,109,7.0,10.0,96,0.00,,,0.00,Wunderground v.1.15,2013-12-03 11:35:00,
2013-12-03 05:36:00,37.5,36.5,29.64,ESE,123,3.0,10.0,96,0.00,,,0.00,Wunderground v.1.15,2013-12-03 11:36:00,
2013-12-03 05:37:00,37.6,36.6,29.64,ESE,123,4.0,10.0,96,0.00,,,0.00,Wunderground v.1.15,2013-12-03 11:37:00,
2013-12-03 05:38:00,37.6,36.6,29.64,ESE,117,5.0,10.0,96,0.00,,,0.00,Wunderground v.1.15,2013-12-03 11:38:00,
2013-12-03 05:39:00,37.6,36.6,29.64,East,95,8.0,11.0,96,0.00,,,0.00,Wunderground v.1.15,2013-12-03 11:39:00,
2013-12-03 05:40:00,37.6,36.6,29.64,East,101,5.0,6.0,96,0.00,,,0.00,Wunderground v.1.15,2013-12-03 11:40:00,
2013-12-03 05:41:00,37.6,36.6,29.64,ESE,119,5.0,6.0,96,0.00,,,0.00,Wunderground v.1.15,2013-12-03 11:41:00,
2013-12-03 05:42:00,37.6,36.6,29.64,East,94,11.0,11.0,96,0.00,,,0.00,Wunderground v.1.15,2013-12-03 11:42:00,
2013-12-03 05:43:00,37.6,36.6,29.64,East,101,8.0,11.0,96,0.00,,,0.00,Wunderground v.1.15,2013-12-03 11:43:00,
2013-12-03 05:44:00,37.6,36.6,29.64,ESE,116,7.0,11.0,96,0.00,,,0.00,Wunderground v.1.15,2013-12-03 11:44:00,
2013-12-03 05:45:00,37.6,36.6,29.64,ESE,121,7.0,11.0,96,0.00,,,0.00,Wunderground v.1.15,2013-12-03 11:45:00,
2013-12-03 05:46:00,37.6,36.6,29.64,SE,130,4.0,11.0,96,0.00,,,0.00,Wunderground v.1.15,2013-12-03 11:46:00,
2013-12-03 05:47:00,37.6,36.6,29.64,SE,134,7.0,11.0,96,0.00,,,0.00,Wunderground v.1.15,2013-12-03 11:47:00,
2013-12-03 05:48:00,37.6,36.6,29.64,East,92,9.0,11.0,96,0.00,,,0.00,Wunderground v.1.15,2013-12-03 11:48:00,
2013-12-03 05:49:00,37.6,36.6,29.64,ESE,104,11.0,11.0,96,0.00,,,0.00,Wunderground v.1.15,2013-12-03 11:49:00,
2013-12-03 05:50:00,37.6,36.6,29.64,East,98,10.0,11.0,96,0.00,,,0.00,Wunderground v.1.15,2013-12-03 11:50:00,
2013-12-03 05:52:00,37.6,36.6,29.65,SE,133,4.0,10.0,96,0.00,,,0.00,Wunderground v.1.15,2013-12-03 11:52:00,
2013-12-03 05:54:00,37.6,36.6,29.65,SE,128,6.0,10.0,96,0.00,,,0.00,Wunderground v.1.15,2013-12-03 11:54:00,
2013-12-03 05:55:00,37.6,36.6,29.65,ESE,123,7.0,10.0,96,0.00,,,0.00,Wunderground v.1.15,2013-12-03 11:55:00,
2013-12-03 05:58:00,37.6,36.6,29.65,ESE,110,7.0,10.0,96,0.00,,,0.00,Wunderground v.1.15,2013-12-03 11:58:00,
2013-12-03 05:59:00,37.6,36.6,29.65,ESE,123,3.0,10.0,96,0.00,,,0.00,Wunderground v.1.15,2013-12-03 11:59:00,
2013-12-03 06:00:00,37.6,36.6,29.65,East,101,2.0,10.0,96,0.00,,,0.00,Wunderground v.1.15,2013-12-03 12:00:00,
2013-12-03 06:01:00,37.6,36.6,29.65,ESE,113,7.0,9.0,96,0.00,,,0.00,Wunderground v.1.15,2013-12-03 12:01:00,
2013-12-03 06:03:00,37.6,36.6,29.65,ESE,119,5.0,10.0,96,0.00,,,0.00,Wunderground v.1.15,2013-12-03 12:03:00,
2013-12-03 06:04:00,37.6,36.6,29.65,East,87,5.0,10.0,96,0.00,,,0.00,Wunderground v.1.15,2013-12-03 12:04:00,
2013-12-03 06:05:00,37.6,36.6,29.65,ESE,117,8.0,10.0,96,0.00,,,0.00,Wunderground v.1.15,2013-12-03 12:05:00,
2013-12-03 06:06:00,37.6,36.6,29.65,SE,134,8.0,10.0,96,0.00,,,0.00,Wunderground v.1.15,2013-12-03 12:06:00,
2013-12-03 06:08:00,37.6,36.6,29.66,ESE,102,9.0,10.0,96,0.00,,,0.00,Wunderground v.1.15,2013-12-03 12:08:00,
2013-12-03 06:09:00,37.6,36.6,29.66,SE,128,8.0,10.0,96,0.00,,,0.00,Wunderground v.1.15,2013-12-03 12:09:00,
2013-12-03 06:10:00,37.6,36.6,29.66,SSE,153,5.0,7.0,96,0.00,,,0.00,Wunderground v.1.15,2013-12-03 12:10:00,
2013-12-03 06:11:00,37.6,36.6,29.66,ESE,115,5.0,7.0,96,0.00,,,0.00,Wunderground v.1.15,2013-12-03 12:11:00,
2013-12-03 06:13:00,37.6,36.6,29.66,SE,136,6.0,9.0,96,0.00,,,0.00,Wunderground v.1.15,2013-12-03 12:13:00,
2013-12-03 06:14:00,37.6,36.6,29.66,ESE,113,5.0,10.0,96,0.00,,,0.00,Wunderground v.1.15,2013-12-03 12:14:00,
2013-12-03 06:15:00,37.6,36.6,29.66,SE,134,6.0,10.0,96,0.00,,,0.00,Wunderground v.1.15,2013-12-03 12:15:00,
2013-12-03 06:16:00,37.6,36.6,29.66,ESE,113,8.0,11.0,96,0.00,,,0.00,Wunderground v.1.15,2013-12-03 12:16:00,
2013-12-03 06:18:00,37.8,36.8,29.66,SE,131,4.0,11.0,96,0.00,,,0.00,Wunderground v.1.15,2013-12-03 12:18:00,
2013-12-03 06:20:00,37.8,36.8,29.66,ESE,121,12.0,12.0,96,0.00,,,0.00,Wunderground v.1.15,2013-12-03 12:20:00,
2013-12-03 06:21:00,37.8,36.8,29.66,SE,128,8.0,13.0,96,0.00,,,0.00,Wunderground v.1.15,2013-12-03 12:21:00,
2013-12-03 06:23:00,37.8,36.8,29.65,SE,146,7.0,13.0,96,0.00,,,0.00,Wunderground v.1.15,2013-12-03 12:23:00,
2013-12-03 06:25:00,37.8,36.8,29.65,SSE,164,5.0,13.0,96,0.00,,,0.00,Wunderground v.1.15,2013-12-03 12:25:00,
2013-12-03 06:26:00,37.8,36.8,29.65,SE,139,4.0,13.0,96,0.00,,,0.00,Wunderground v.1.15,2013-12-03 12:26:00,
2013-12-03 06:27:00,37.8,36.8,29.65,SE,132,5.0,13.0,96,0.00,,,0.00,Wunderground v.1.15,2013-12-03 12:27:00,
2013-12-03 06:28:00,37.8,36.8,29.65,SE,134,3.0,13.0,96,0.00,,,0.00,Wunderground v.1.15,2013-12-03 12:28:00,
2013-12-03 06:30:00,37.8,36.8,29.65,ESE,122,8.0,10.0,96,0.00,,,0.00,Wunderground v.1.15,2013-12-03 12:30:00,
2013-12-03 06:31:00,37.8,36.8,29.65,ESE,117,8.0,10.0,96,0.00,,,0.00,Wunderground v.1.15,2013-12-03 12:31:00,
2013-12-03 06:32:00,37.8,36.8,29.65,SE,144,6.0,10.0,96,0.00,,,0.00,Wunderground v.1.15,2013-12-03 12:32:00,
2013-12-03 06:33:00,37.9,36.9,29.65,SE,133,9.0,10.0,96,0.00,,,0.00,Wunderground v.1.15,2013-12-03 12:33:00,
2013-12-03 06:35:00,37.9,36.9,29.65,ESE,122,9.0,11.0,96,0.00,,,0.00,Wunderground v.1.15,2013-12-03 12:35:00,
2013-12-03 06:36:00,37.9,36.9,29.65,SE,132,8.0,11.0,96,0.00,,,0.00,Wunderground v.1.15,2013-12-03 12:36:00,
2013-12-03 06:37:00,37.9,36.9,29.65,East,99,2.0,11.0,96,0.00,,,0.00,Wunderground v.1.15,2013-12-03 12:37:00,
2013-12-03 06:39:00,37.9,36.9,29.65,SE,135,7.0,11.0,96,0.00,,,0.00,Wunderground v.1.15,2013-12-03 12:39:00,
2013-12-03 06:40:00,37.9,36.9,29.65,SE,126,6.0,11.0,96,0.00,,,0.00,Wunderground v.1.15,2013-12-03 12:40:00,
2013-12-03 06:42:00,38.0,37.0,29.65,SE,134,7.0,7.0,96,0.00,,,0.00,Wunderground v.1.15,2013-12-03 12:42:00,
2013-12-03 06:43:00,38.0,37.0,29.65,East,84,3.0,8.0,96,0.00,,,0.00,Wunderground v.1.15,2013-12-03 12:43:00,
2013-12-03 06:44:00,38.0,37.0,29.65,SE,133,9.0,9.0,96,0.00,,,0.00,Wunderground v.1.15,2013-12-03 12:44:00,
2013-12-03 06:45:00,38.0,37.0,29.65,ESE,123,10.0,11.0,96,0.00,,,0.00,Wunderground v.1.15,2013-12-03 12:45:00,
2013-12-03 06:47:00,38.0,37.0,29.65,ESE,109,10.0,11.0,96,0.00,,,0.00,Wunderground v.1.15,2013-12-03 12:47:00,
2013-12-03 06:48:00,38.0,37.0,29.65,SE,146,6.0,11.0,96,0.00,,,0.00,Wunderground v.1.15,2013-12-03 12:48:00,
2013-12-03 06:49:00,38.0,37.0,29.65,SE,126,3.0,11.0,96,0.00,,,0.00,Wunderground v.1.15,2013-12-03 12:49:00,
2013-12-03 06:50:00,38.0,37.0,29.65,SE,134,4.0,6.0,96,0.00,,,0.00,Wunderground v.1.15,2013-12-03 12:50:00,
2013-12-03 06:53:00,38.0,37.0,29.65,SE,134,7.0,12.0,96,0.00,,,0.00,Wunderground v.1.15,2013-12-03 12:53:00,
2013-12-03 06:54:00,38.2,37.2,29.65,SSE,168,5.0,12.0,96,0.00,,,0.00,Wunderground v.1.15,2013-12-03 12:54:00,
2013-12-03 06:56:00,38.2,37.2,29.65,SE,137,5.0,12.0,96,0.00,,,0.00,Wunderground v.1.15,2013-12-03 12:56:00,
2013-12-03 06:57:00,38.2,37.2,29.65,SE,130,7.0,12.0,96,0.00,,,0.00,Wunderground v.1.15,2013-12-03 12:57:00,
2013-12-03 06:58:00,38.2,37.2,29.65,SE,130,7.0,13.0,96,0.00,,,0.00,Wunderground v.1.15,2013-12-03 12:58:00,
2013-12-03 06:59:00,38.2,37.2,29.65,SSE,150,8.0,13.0,96,0.00,,,0.00,Wunderground v.1.15,2013-12-03 12:59:00,
2013-12-03 07:00:00,38.2,37.2,29.65,ESE,116,5.0,7.0,96,0.00,,,0.00,Wunderground v.1.15,2013-12-03 13:00:00,
2013-12-03 07:01:00,38.2,37.2,29.65,East,97,8.0,12.0,96,0.00,,,0.00,Wunderground v.1.15,2013-12-03 13:01:00,
2013-12-03 07:02:00,38.2,37.2,29.65,ESE,102,7.0,12.0,96,0.00,,,0.00,Wunderground v.1.15,2013-12-03 13:02:00,
2013-12-03 07:03:00,38.2,37.2,29.65,SE,135,6.0,12.0,96,0.00,,,0.00,Wunderground v.1.15,2013-12-03 13:03:00,
2013-12-03 07:04:00,38.2,37.2,29.65,SSE,147,5.0,12.0,96,0.00,,,0.00,Wunderground v.1.15,2013-12-03 13:04:00,
2013-12-03 07:05:00,38.2,37.2,29.65,SE,136,6.0,12.0,96,0.00,,,0.00,Wunderground v.1.15,2013-12-03 13:05:00,
2013-12-03 07:06:00,38.2,37.2,29.65,SE,136,8.0,12.0,96,0.00,,,0.00,Wunderground v.1.15,2013-12-03 13:06:00,
2013-12-03 07:07:00,38.2,37.2,29.64,ESE,121,5.0,12.0,96,0.00,,,0.00,Wunderground v.1.15,2013-12-03 13:07:00,
2013-12-03 07:08:00,38.2,37.2,29.64,ESE,120,4.0,12.0,96,0.00,,,0.00,Wunderground v.1.15,2013-12-03 13:08:00,
2013-12-03 07:09:00,38.3,37.3,29.64,ESE,112,4.0,12.0,96,0.00,,,0.00,Wunderground v.1.15,2013-12-03 13:09:00,
2013-12-03 07:10:00,38.3,37.3,29.64,ESE,117,8.0,9.0,96,0.00,,,0.00,Wunderground v.1.15,2013-12-03 13:10:00,
2013-12-03 07:11:00,38.3,37.3,29.64,SE,138,3.0,9.0,96,0.00,,,0.00,Wunderground v.1.15,2013-12-03 13:11:00,
2013-12-03 07:12:00,38.3,37.3,29.64,ESE,107,7.0,9.0,96,0.00,,,0.00,Wunderground v.1.15,2013-12-03 13:12:00,
2013-12-03 07:13:00,38.3,37.3,29.64,SE,139,3.0,9.0,96,0.00,,,0.00,Wunderground v.1.15,2013-12-03 13:13:00,
2013-12-03 07:14:00,38.3,37.3,29.64,SE,142,3.0,9.0,96,0.00,,,0.00,Wunderground v.1.15,2013-12-03 13:14:00,
2013-12-03 07:15:00,38.3,37.3,29.64,SSE,148,5.0,9.0,96,0.00,,,0.00,Wunderground v.1.15,2013-12-03 13:15:00,
2013-12-03 07:16:00,38.3,37.3,29.64,SE,128,3.0,9.0,96,0.00,,,0.00,Wunderground v.1.15,2013-12-03 13:16:00,
2013-12-03 07:18:00,38.5,37.5,29.64,SE,135,8.0,9.0,96,0.00,,,0.00,Wunderground v.1.15,2013-12-03 13:18:00,
2013-12-03 07:19:00,38.5,37.5,29.64,ESE,116,5.0,9.0,96,0.00,,,0.00,Wunderground v.1.15,2013-12-03 13:19:00,
2013-12-03 07:21:00,38.5,37.5,29.64,SE,129,5.0,7.0,96,0.00,,,0.00,Wunderground v.1.15,2013-12-03 13:21:00,
2013-12-03 07:22:00,38.5,37.5,29.66,SE,141,4.0,7.0,96,0.00,,,0.00,Wunderground v.1.15,2013-12-03 13:22:00,
2013-12-03 07:23:00,38.6,37.6,29.66,SE,144,5.0,7.0,96,0.00,,,0.00,Wunderground v.1.15,2013-12-03 13:23:00,
2013-12-03 07:24:00,38.6,37.6,29.66,SE,124,3.0,7.0,96,0.00,,,0.00,Wunderground v.1.15,2013-12-03 13:24:00,
2013-12-03 07:26:00,38.6,37.6,29.66,SSE,151,3.0,7.0,96,0.00,,,0.00,Wunderground v.1.15,2013-12-03 13:26:00,
2013-12-03 07:27:00,38.6,37.6,29.66,SSE,147,4.0,7.0,96,0.00,,,0.00,Wunderground v.1.15,2013-12-03 13:27:00,
2013-12-03 07:28:00,38.6,37.6,29.66,SSE,160,5.0,7.0,96,0.00,,,0.00,Wunderground v.1.15,2013-12-03 13:28:00,
2013-12-03 07:30:00,38.6,37.6,29.66,SE,143,5.0,6.0,96,0.00,,,0.00,Wunderground v.1.15,2013-12-03 13:30:00,
2013-12-03 07:32:00,38.8,37.8,29.66,SE,134,4.0,6.0,96,0.00,,,0.00,Wunderground v.1.15,2013-12-03 13:32:00,
2013-12-03 07:34:00,38.8,37.8,29.66,SE,130,4.0,6.0,96,0.00,,,0.00,Wunderground v.1.15,2013-12-03 13:34:00,
2013-12-03 07:35:00,38.8,37.8,29.66,SE,136,5.0,6.0,96,0.00,,,0.00,Wunderground v.1.15,2013-12-03 13:35:00,
2013-12-03 07:37:00,38.8,37.8,29.66,SE,136,5.0,6.0,96,0.00,,,0.00,Wunderground v.1.15,2013-12-03 13:37:00,
2013-12-03 07:38:00,38.8,37.8,29.66,SE,136,2.0,6.0,96,0.00,,,0.00,Wunderground v.1.15,2013-12-03 13:38:00,
2013-12-03 07:39:00,38.8,37.8,29.66,SE,124,2.0,6.0,96,0.00,,,0.00,Wunderground v.1.15,2013-12-03 13:39:00,
2013-12-03 07:40:00,38.8,37.8,29.66,SSE,155,3.0,4.0,96,0.00,,,0.00,Wunderground v.1.15,2013-12-03 13:40:00,
2013-12-03 07:41:00,38.8,37.8,29.66,SE,132,3.0,4.0,96,0.00,,,0.00,Wunderground v.1.15,2013-12-03 13:41:00,
2013-12-03 07:42:00,38.8,37.8,29.66,SSE,148,5.0,5.0,96,0.00,,,0.00,Wunderground v.1.15,2013-12-03 13:42:00,
2013-12-03 07:43:00,38.8,37.8,29.66,SE,140,3.0,5.0,96,0.00,,,0.00,Wunderground v.1.15,2013-12-03 13:43:00,
2013-12-03 07:45:00,38.9,37.9,29.66,SE,142,5.0,5.0,96,0.00,,,0.00,Wunderground v.1.15,2013-12-03 13:45:00,
2013-12-03 07:47:00,38.9,37.9,29.66,SE,130,4.0,6.0,96,0.00,,,0.00,Wunderground v.1.15,2013-12-03 13:47:00,
2013-12-03 07:48:00,38.9,37.9,29.66,SE,126,4.0,6.0,96,0.00,,,0.00,Wunderground v.1.15,2013-12-03 13:48:00,
2013-12-03 07:49:00,38.9,37.9,29.66,SSE,157,4.0,6.0,96,0.00,,,0.00,Wunderground v.1.15,2013-12-03 13:49:00,
2013-12-03 07:50:00,38.9,37.9,29.66,SSE,151,4.0,6.0,96,0.00,,,0.00,Wunderground v.1.15,2013-12-03 13:50:00,
2013-12-03 07:52:00,39.1,38.1,29.66,SSE,156,5.0,6.0,96,0.00,,,0.00,Wunderground v.1.15,2013-12-03 13:52:00,
2013-12-03 07:53:00,39.1,38.1,29.66,SSE,148,7.0,7.0,96,0.00,,,0.00,Wunderground v.1.15,2013-12-03 13:53:00,
2013-12-03 07:54:00,39.1,38.1,29.66,ESE,115,7.0,7.0,96,0.00,,,0.00,Wunderground v.1.15,2013-12-03 13:54:00,
2013-12-03 07:56:00,39.1,38.1,29.66,SE,127,6.0,8.0,96,0.00,,,0.00,Wunderground v.1.15,2013-12-03 13:56:00,
2013-12-03 07:57:00,39.2,38.2,29.66,SE,140,3.0,8.0,96,0.00,,,0.00,Wunderground v.1.15,2013-12-03 13:57:00,
2013-12-03 07:58:00,39.2,38.2,29.66,SSE,165,6.0,8.0,96,0.00,,,0.00,Wunderground v.1.15,2013-12-03 13:58:00,
2013-12-03 07:59:00,39.2,38.2,29.66,SSE,154,7.0,8.0,96,0.00,,,0.00,Wunderground v.1.15,2013-12-03 13:59:00,
2013-12-03 08:00:00,39.2,38.2,29.66,SE,138,7.0,7.0,96,0.00,,,0.00,Wunderground v.1.15,2013-12-03 14:00:00,
2013-12-03 08:01:00,39.2,38.2,29.66,SE,138,5.0,7.0,96,0.00,,,0.00,Wunderground v.1.15,2013-12-03 14:01:00,
2013-12-03 08:03:00,39.3,38.3,29.66,SE,135,3.0,7.0,96,0.00,,,0.00,Wunderground v.1.15,2013-12-03 14:03:00,
2013-12-03 08:04:00,39.3,38.3,29.66,SSE,154,7.0,7.0,96,0.00,,,0.00,Wunderground v.1.15,2013-12-03 14:04:00,
2013-12-03 08:05:00,39.3,38.3,29.66,SE,144,10.0,10.0,96,0.00,,,0.00,Wunderground v.1.15,2013-12-03 14:05:00,
2013-12-03 08:06:00,39.3,38.3,29.67,SSE,147,6.0,10.0,96,0.00,,,0.00,Wunderground v.1.15,2013-12-03 14:06:00,
2013-12-03 08:08:00,39.3,38.0,29.67,SSE,148,8.0,11.0,95,0.00,,,0.00,Wunderground v.1.15,2013-12-03 14:08:00,
2013-12-03 08:09:00,39.3,38.0,29.67,SE,134,4.0,11.0,95,0.00,,,0.00,Wunderground v.1.15,2013-12-03 14:09:00,
2013-12-03 08:10:00,39.3,38.0,29.67,SE,145,8.0,9.0,95,0.00,,,0.00,Wunderground v.1.15,2013-12-03 14:10:00,
2013-12-03 08:11:00,39.3,38.0,29.67,SE,144,7.0,9.0,95,0.00,,,0.00,Wunderground v.1.15,2013-12-03 14:11:00,
2013-12-03 08:12:00,39.3,38.0,29.67,SE,126,6.0,9.0,95,0.00,,,0.00,Wunderground v.1.15,2013-12-03 14:12:00,
2013-12-03 08:13:00,39.3,38.0,29.67,SSE,159,6.0,9.0,95,0.00,,,0.00,Wunderground v.1.15,2013-12-03 14:13:00,
2013-12-03 08:14:00,39.5,38.2,29.67,SSE,151,7.0,9.0,95,0.00,,,0.00,Wunderground v.1.15,2013-12-03 14:14:00,
2013-12-03 08:15:00,39.5,38.2,29.67,SE,136,9.0,9.0,95,0.00,,,0.00,Wunderground v.1.15,2013-12-03 14:15:00,
2013-12-03 08:16:00,39.5,38.2,29.67,SSE,147,8.0,11.0,95,0.00,,,0.00,Wunderground v.1.15,2013-12-03 14:16:00,
2013-12-03 08:18:00,39.5,38.2,29.67,SSE,152,8.0,11.0,95,0.00,,,0.00,Wunderground v.1.15,2013-12-03 14:18:00,
2013-12-03 08:19:00,39.5,38.2,29.67,SSE,147,6.0,11.0,95,0.00,,,0.00,Wunderground v.1.15,2013-12-03 14:19:00,
2013-12-03 08:21:00,39.5,38.2,29.67,SE,136,8.0,9.0,95,0.00,,,0.00,Wunderground v.1.15,2013-12-03 14:21:00,
2013-12-03 08:23:00,39.6,38.3,29.67,SSE,157,4.0,9.0,95,0.00,,,0.00,Wunderground v.1.15,2013-12-03 14:23:00,
2013-12-03 08:24:00,39.6,38.3,29.67,SE,141,5.0,9.0,95,0.00,,,0.00,Wunderground v.1.15,2013-12-03 14:24:00,
2013-12-03 08:26:00,39.6,38.3,29.67,SE,144,10.0,11.0,95,0.00,,,0.00,Wunderground v.1.15,2013-12-03 14:26:00,
2013-12-03 08:29:00,39.8,38.5,29.67,SE,143,4.0,11.0,95,0.00,,,0.00,Wunderground v.1.15,2013-12-03 14:29:00,
2013-12-03 08:30:00,39.8,38.5,29.67,SSE,157,6.0,6.0,95,0.00,,,0.00,Wunderground v.1.15,2013-12-03 14:30:00,
2013-12-03 08:31:00,39.8,38.5,29.67,SE,128,8.0,8.0,95,0.00,,,0.00,Wunderground v.1.15,2013-12-03 14:31:00,
2013-12-03 08:33:00,39.8,38.5,29.67,SE,142,5.0,10.0,95,0.00,,,0.00,Wunderground v.1.15,2013-12-03 14:33:00,
2013-12-03 08:34:00,39.9,38.6,29.67,SE,144,4.0,10.0,95,0.00,,,0.00,Wunderground v.1.15,2013-12-03 14:34:00,
2013-12-03 08:35:00,39.9,38.6,29.67,SE,132,5.0,10.0,95,0.00,,,0.00,Wunderground v.1.15,2013-12-03 14:35:00,
2013-12-03 08:36:00,39.9,38.6,29.67,SE,140,7.0,10.0,95,0.00,,,0.00,Wunderground v.1.15,2013-12-03 14:36:00,
2013-12-03 08:38:00,39.9,38.6,29.67,ESE,115,4.0,10.0,95,0.00,,,0.00,Wunderground v.1.15,2013-12-03 14:38:00,
2013-12-03 08:39:00,39.9,38.6,29.67,SE,138,4.0,10.0,95,0.00,,,0.00,Wunderground v.1.15,2013-12-03 14:39:00,
2013-12-03 08:40:00,40.1,38.8,29.67,SE,132,6.0,8.0,95,0.00,,,0.00,Wunderground v.1.15,2013-12-03 14:40:00,
2013-12-03 08:41:00,40.1,38.8,29.67,South,171,5.0,8.0,95,0.00,,,0.00,Wunderground v.1.15,2013-12-03 14:41:00,
2013-12-03 08:42:00,40.1,38.8,29.67,SE,141,7.0,8.0,95,0.00,,,0.00,Wunderground v.1.15,2013-12-03 14:42:00,
2013-12-03 08:44:00,40.1,38.8,29.67,SSE,149,8.0,8.0,95,0.00,,,0.00,Wunderground v.1.15,2013-12-03 14:44:00,
2013-12-03 08:45:00,40.1,38.8,29.67,SSE,163,5.0,8.0,95,0.00,,,0.00,Wunderground v.1.15,2013-12-03 14:45:00,
2013-12-03 08:47:00,40.1,38.8,29.67,SSE,155,6.0,9.0,95,0.00,,,0.00,Wunderground v.1.15,2013-12-03 14:47:00,
2013-12-03 08:48:00,40.1,38.8,29.67,SE,145,6.0,9.0,95,0.00,,,0.00,Wunderground v.1.15,2013-12-03 14:48:00,
2013-12-03 08:49:00,40.2,38.9,29.67,SE,124,5.0,9.0,95,0.00,,,0.00,Wunderground v.1.15,2013-12-03 14:49:00,
2013-12-03 08:50:00,40.2,38.9,29.67,SSE,148,9.0,10.0,95,0.00,,,0.00,Wunderground v.1.15,2013-12-03 14:50:00,
2013-12-03 08:51:00,40.2,38.9,29.67,SE,144,6.0,10.0,95,0.00,,,0.00,Wunderground v.1.15,2013-12-03 14:51:00,
2013-12-03 08:53:00,40.2,38.9,29.67,SSE,153,8.0,10.0,95,0.00,,,0.00,Wunderground v.1.15,2013-12-03 14:53:00,
2013-12-03 08:55:00,40.2,38.9,29.67,SSE,167,5.0,10.0,95,0.00,,,0.00,Wunderground v.1.15,2013-12-03 14:55:00,
2013-12-03 08:56:00,40.3,39.0,29.67,SSE,152,3.0,10.0,95,0.00,,,0.00,Wunderground v.1.15,2013-12-03 14:56:00,
2013-12-03 08:58:00,40.3,39.0,29.67,SSE,150,4.0,10.0,95,0.00,,,0.00,Wunderground v.1.15,2013-12-03 14:58:00,
2013-12-03 08:59:00,40.3,39.0,29.67,SSE,148,5.0,10.0,95,0.00,,,0.00,Wunderground v.1.15,2013-12-03 14:59:00,
2013-12-03 09:00:00,40.3,39.0,29.67,SE,132,7.0,7.0,95,0.00,,,0.00,Wunderground v.1.15,2013-12-03 15:00:00,
2013-12-03 09:01:00,40.3,39.0,29.67,SSE,161,5.0,8.0,95,0.00,,,0.00,Wunderground v.1.15,2013-12-03 15:01:00,
2013-12-03 09:02:00,40.3,39.0,29.67,SE,137,6.0,8.0,95,0.00,,,0.00,Wunderground v.1.15,2013-12-03 15:02:00,
2013-12-03 09:04:00,40.3,39.0,29.67,ESE,121,3.0,8.0,95,0.00,,,0.00,Wunderground v.1.15,2013-12-03 15:04:00,
2013-12-03 09:05:00,40.3,39.0,29.67,SE,130,4.0,8.0,95,0.00,,,0.00,Wunderground v.1.15,2013-12-03 15:05:00,
2013-12-03 09:06:00,40.3,39.0,29.69,SE,137,5.0,8.0,95,0.00,,,0.00,Wunderground v.1.15,2013-12-03 15:06:00,
2013-12-03 09:07:00,40.3,39.0,29.69,SSE,147,2.0,8.0,95,0.00,,,0.00,Wunderground v.1.15,2013-12-03 15:07:00,
2013-12-03 09:09:00,40.3,39.0,29.69,SE,138,3.0,8.0,95,0.00,,,0.00,Wunderground v.1.15,2013-12-03 15:09:00,
2013-12-03 09:10:00,40.5,39.2,29.69,SE,126,2.0,4.0,95,0.00,,,0.00,Wunderground v.1.15,2013-12-03 15:10:00,
2013-12-03 09:12:00,40.5,39.2,29.69,SE,125,6.0,6.0,95,0.00,,,0.00,Wunderground v.1.15,2013-12-03 15:12:00,
2013-12-03 09:14:00,40.5,39.2,29.69,SE,132,2.0,6.0,95,0.00,,,0.00,Wunderground v.1.15,2013-12-03 15:14:00,
2013-12-03 09:15:00,40.5,39.2,29.69,ESE,123,7.0,7.0,95,0.00,,,0.00,Wunderground v.1.15,2013-12-03 15:15:00,
2013-12-03 09:16:00,40.6,39.3,29.69,SE,130,6.0,8.0,95,0.00,,,0.00,Wunderground v.1.15,2013-12-03 15:16:00,
2013-12-03 09:17:00,40.6,39.3,29.69,SSE,156,5.0,8.0,95,0.00,,,0.00,Wunderground v.1.15,2013-12-03 15:17:00,
2013-12-03 09:19:00,40.6,39.3,29.69,ESE,123,5.0,10.0,95,0.00,,,0.00,Wunderground v.1.15,2013-12-03 15:19:00,
2013-12-03 09:20:00,40.6,39.3,29.69,SE,128,4.0,4.0,95,0.00,,,0.00,Wunderground v.1.15,2013-12-03 15:20:00,
2013-12-03 09:21:00,40.6,39.3,29.68,ESE,106,7.0,7.0,95,0.00,,,0.00,Wunderground v.1.15,2013-12-03 15:21:00,
2013-12-03 09:22:00,40.8,39.5,29.68,SE,144,7.0,10.0,95,0.00,,,0.00,Wunderground v.1.15,2013-12-03 15:22:00,
2013-12-03 09:23:00,40.8,39.5,29.68,SE,126,6.0,10.0,95,0.00,,,0.00,Wunderground v.1.15,2013-12-03 15:23:00,
2013-12-03 09:24:00,40.8,39.5,29.68,SE,133,5.0,10.0,95,0.00,,,0.00,Wunderground v.1.15,2013-12-03 15:24:00,
2013-12-03 09:26:00,40.8,39.5,29.68,ESE,117,5.0,10.0,95,0.00,,,0.00,Wunderground v.1.15,2013-12-03 15:26:00,
2013-12-03 09:27:00,40.8,39.5,29.68,SE,135,5.0,10.0,95,0.00,,,0.00,Wunderground v.1.15,2013-12-03 15:27:00,
2013-12-03 09:28:00,40.9,39.6,29.68,SE,134,3.0,10.0,95,0.00,,,0.00,Wunderground v.1.15,2013-12-03 15:28:00,
2013-12-03 09:29:00,40.9,39.6,29.68,ESE,102,3.0,10.0,95,0.00,,,0.00,Wunderground v.1.15,2013-12-03 15:29:00,
2013-12-03 09:30:00,40.9,39.6,29.68,ESE,115,8.0,8.0,95,0.00,,,0.00,Wunderground v.1.15,2013-12-03 15:30:00,
2013-12-03 09:31:00,40.9,39.6,29.68,SE,137,4.0,9.0,95,0.00,,,0.00,Wunderground v.1.15,2013-12-03 15:31:00,
2013-12-03 09:32:00,41.1,39.8,29.68,SE,134,8.0,10.0,95,0.00,,,0.00,Wunderground v.1.15,2013-12-03 15:32:00,
2013-12-03 09:33:00,41.1,39.8,29.68,ESE,109,7.0,10.0,95,0.00,,,0.00,Wunderground v.1.15,2013-12-03 15:33:00,
2013-12-03 09:35:00,41.1,39.5,29.68,SSE,159,3.0,10.0,94,0.00,,,0.00,Wunderground v.1.15,2013-12-03 15:35:00,
2013-12-03 09:36:00,41.2,39.9,29.67,SE,128,6.0,10.0,95,0.00,,,0.00,Wunderground v.1.15,2013-12-03 15:36:00,
2013-12-03 09:37:00,41.2,39.6,29.67,ESE,123,7.0,10.0,94,0.00,,,0.00,Wunderground v.1.15,2013-12-03 15:37:00,
2013-12-03 09:38:00,41.2,39.6,29.67,SE,126,5.0,10.0,94,0.00,,,0.00,Wunderground v.1.15,2013-12-03 15:38:00,
2013-12-03 09:40:00,41.3,39.7,29.67,SE,134,5.0,6.0,94,0.00,,,0.00,Wunderground v.1.15,2013-12-03 15:40:00,
2013-12-03 09:41:00,41.3,39.7,29.67,SE,136,10.0,11.0,94,0.00,,,0.00,Wunderground v.1.15,2013-12-03 15:41:00,
2013-12-03 09:42:00,41.3,39.7,29.67,SSE,148,5.0,11.0,94,0.00,,,0.00,Wunderground v.1.15,2013-12-03 15:42:00,
2013-12-03 09:43:00,41.3,39.7,29.67,SSE,153,6.0,11.0,94,0.00,,,0.00,Wunderground v.1.15,2013-12-03 15:43:00,
2013-12-03 09:44:00,41.3,39.7,29.67,SE,145,8.0,11.0,94,0.00,,,0.00,Wunderground v.1.15,2013-12-03 15:44:00,
2013-12-03 09:45:00,41.3,39.7,29.67,SSE,157,5.0,11.0,94,0.00,,,0.00,Wunderground v.1.15,2013-12-03 15:45:00,
2013-12-03 09:46:00,41.3,39.7,29.67,SSE,151,5.0,11.0,94,0.00,,,0.00,Wunderground v.1.15,2013-12-03 15:46:00,
2013-12-03 09:47:00,41.5,39.9,29.67,ESE,123,4.0,11.0,94,0.00,,,0.00,Wunderground v.1.15,2013-12-03 15:47:00,
2013-12-03 09:49:00,41.5,39.9,29.67,SE,138,3.0,11.0,94,0.00,,,0.00,Wunderground v.1.15,2013-12-03 15:49:00,
2013-12-03 09:51:00,41.6,40.0,29.67,SSE,148,5.0,8.0,94,0.00,,,0.00,Wunderground v.1.15,2013-12-03 15:51:00,
2013-12-03 09:52:00,41.6,40.0,29.67,ESE,122,10.0,10.0,94,0.00,,,0.00,Wunderground v.1.15,2013-12-03 15:52:00,
2013-12-03 09:54:00,41.6,40.0,29.67,SE,137,4.0,10.0,94,0.00,,,0.00,Wunderground v.1.15,2013-12-03 15:54:00,
2013-12-03 09:56:00,41.8,40.2,29.67,SE,143,6.0,10.0,94,0.00,,,0.00,Wunderground v.1.15,2013-12-03 15:56:00,
2013-12-03 09:57:00,41.8,40.2,29.67,SE,146,6.0,10.0,94,0.00,,,0.00,Wunderground v.1.15,2013-12-03 15:57:00,
2013-12-03 09:59:00,41.9,40.3,29.67,SE,140,6.0,10.0,94,0.00,,,0.00,Wunderground v.1.15,2013-12-03 15:59:00,
2013-12-03 10:01:00,42.1,40.5,29.67,SE,144,6.0,6.0,94,0.00,,,0.00,Wunderground v.1.15,2013-12-03 16:01:00,
2013-12-03 10:02:00,42.1,40.5,29.67,SE,135,9.0,9.0,94,0.00,,,0.00,Wunderground v.1.15,2013-12-03 16:02:00,
2013-12-03 10:03:00,42.1,40.5,29.67,SSE,151,5.0,9.0,94,0.00,,,0.00,Wunderground v.1.15,2013-12-03 16:03:00,
2013-12-03 10:04:00,42.2,40.6,29.67,ESE,113,4.0,9.0,94,0.00,,,0.00,Wunderground v.1.15,2013-12-03 16:04:00,
2013-12-03 10:06:00,42.2,40.6,29.68,SSE,161,7.0,9.0,94,0.00,,,0.00,Wunderground v.1.15,2013-12-03 16:06:00,
2013-12-03 10:08:00,42.3,40.7,29.68,SSE,161,6.0,10.0,94,0.00,,,0.00,Wunderground v.1.15,2013-12-03 16:08:00,
2013-12-03 10:09:00,42.3,40.7,29.68,SSE,147,9.0,10.0,94,0.00,,,0.00,Wunderground v.1.15,2013-12-03 16:09:00,
2013-12-03 10:10:00,42.5,40.9,29.68,SE,134,4.0,10.0,94,0.00,,,0.00,Wunderground v.1.15,2013-12-03 16:10:00,
2013-12-03 10:12:00,42.5,40.9,29.68,SSE,163,7.0,10.0,94,0.00,,,0.00,Wunderground v.1.15,2013-12-03 16:12:00,
2013-12-03 10:13:00,42.6,41.0,29.68,ESE,123,4.0,10.0,94,0.00,,,0.00,Wunderground v.1.15,2013-12-03 16:13:00,
2013-12-03 10:14:00,42.8,41.2,29.68,SE,126,6.0,10.0,94,0.00,,,0.00,Wunderground v.1.15,2013-12-03 16:14:00,
2013-12-03 10:16:00,42.8,41.2,29.68,SE,126,9.0,12.0,94,0.00,,,0.00,Wunderground v.1.15,2013-12-03 16:16:00,
2013-12-03 10:17:00,42.8,41.2,29.68,ESE,111,9.0,12.0,94,0.00,,,0.00,Wunderground v.1.15,2013-12-03 16:17:00,
2013-12-03 10:18:00,42.9,41.3,29.68,SE,129,10.0,12.0,94,0.00,,,0.00,Wunderground v.1.15,2013-12-03 16:18:00,
2013-12-03 10:19:00,42.9,41.3,29.68,SE,132,8.0,12.0,94,0.00,,,0.00,Wunderground v.1.15,2013-12-03 16:19:00,
2013-12-03 10:20:00,43.1,41.5,29.68,SSE,149,10.0,10.0,94,0.00,,,0.00,Wunderground v.1.15,2013-12-03 16:20:00,
2013-12-03 10:22:00,43.1,41.2,29.67,SSE,150,5.0,10.0,93,0.00,,,0.00,Wunderground v.1.15,2013-12-03 16:22:00,
2013-12-03 10:23:00,43.2,41.3,29.67,SE,142,4.0,10.0,93,0.00,,,0.00,Wunderground v.1.15,2013-12-03 16:23:00,
2013-12-03 10:24:00,43.2,41.3,29.67,SSE,148,4.0,10.0,93,0.00,,,0.00,Wunderground v.1.15,2013-12-03 16:24:00,
2013-12-03 10:25:00,43.3,41.4,29.67,SE,137,6.0,10.0,93,0.00,,,0.00,Wunderground v.1.15,2013-12-03 16:25:00,
2013-12-03 10:26:00,43.5,41.6,29.67,SE,135,8.0,10.0,93,0.00,,,0.00,Wunderground v.1.15,2013-12-03 16:26:00,
2013-12-03 10:28:00,43.5,41.6,29.67,SE,144,5.0,12.0,93,0.00,,,0.00,Wunderground v.1.15,2013-12-03 16:28:00,
2013-12-03 10:29:00,43.6,41.7,29.67,SE,144,3.0,12.0,93,0.00,,,0.00,Wunderground v.1.15,2013-12-03 16:29:00,
2013-12-03 10:30:00,43.6,41.7,29.67,SE,131,9.0,9.0,93,0.00,,,0.00,Wunderground v.1.15,2013-12-03 16:30:00,
2013-12-03 10:31:00,43.8,41.9,29.67,SSE,158,3.0,9.0,93,0.00,,,0.00,Wunderground v.1.15,2013-12-03 16:31:00,
2013-12-03 10:33:00,43.9,42.0,29.67,SE,142,4.0,9.0,93,0.00,,,0.00,Wunderground v.1.15,2013-12-03 16:33:00,
2013-12-03 10:34:00,43.9,42.0,29.67,SE,135,5.0,9.0,93,0.00,,,0.00,Wunderground v.1.15,2013-12-03 16:34:00,
2013-12-03 10:36:00,44.1,42.2,29.67,SSE,148,5.0,10.0,93,0.00,,,0.00,Wunderground v.1.15,2013-12-03 16:36:00,
2013-12-03 10:38:00,44.1,42.2,29.67,SSE,148,5.0,10.0,93,0.00,,,0.00,Wunderground v.1.15,2013-12-03 16:38:00,
2013-12-03 10:39:00,44.2,42.3,29.67,SE,130,5.0,10.0,93,0.00,,,0.00,Wunderground v.1.15,2013-12-03 16:39:00,
2013-12-03 10:41:00,44.2,42.3,29.67,SSE,150,6.0,11.0,93,0.00,,,0.00,Wunderground v.1.15,2013-12-03 16:41:00,
2013-12-03 10:43:00,44.2,42.3,29.67,SE,128,5.0,11.0,93,0.00,,,0.00,Wunderground v.1.15,2013-12-03 16:43:00,
2013-12-03 10:44:00,44.3,42.4,29.67,SSE,157,4.0,11.0,93,0.00,,,0.00,Wunderground v.1.15,2013-12-03 16:44:00,
2013-12-03 10:45:00,44.3,42.4,29.67,SE,128,5.0,11.0,93,0.00,,,0.00,Wunderground v.1.15,2013-12-03 16:45:00,
2013-12-03 10:47:00,44.5,42.6,29.67,SE,146,8.0,11.0,93,0.00,,,0.00,Wunderground v.1.15,2013-12-03 16:47:00,
2013-12-03 10:48:00,44.5,42.3,29.67,SSE,151,4.0,11.0,92,0.00,,,0.00,Wunderground v.1.15,2013-12-03 16:48:00,
2013-12-03 10:49:00,44.5,42.3,29.67,South,170,3.0,11.0,92,0.00,,,0.00,Wunderground v.1.15,2013-12-03 16:49:00,
2013-12-03 10:50:00,44.6,42.7,29.67,SSE,150,4.0,6.0,93,0.00,,,0.00,Wunderground v.1.15,2013-12-03 16:50:00,
2013-12-03 10:52:00,44.8,42.9,29.66,SSE,148,6.0,6.0,93,0.00,,,0.00,Wunderground v.1.15,2013-12-03 16:52:00,
2013-12-03 10:53:00,44.8,42.6,29.66,SSE,155,6.0,6.0,92,0.00,,,0.00,Wunderground v.1.15,2013-12-03 16:53:00,
2013-12-03 10:54:00,44.9,43.0,29.66,SSE,157,3.0,6.0,93,0.00,,,0.00,Wunderground v.1.15,2013-12-03 16:54:00,
2013-12-03 10:55:00,44.9,43.0,29.66,SE,143,4.0,6.0,93,0.00,,,0.00,Wunderground v.1.15,2013-12-03 16:55:00,
2013-12-03 10:56:00,44.9,43.0,29.66,South,172,4.0,6.0,93,0.00,,,0.00,Wunderground v.1.15,2013-12-03 16:56:00,
2013-12-03 10:57:00,45.1,43.2,29.66,SSE,152,4.0,6.0,93,0.00,,,0.00,Wunderground v.1.15,2013-12-03 16:57:00,
2013-12-03 10:58:00,45.2,43.3,29.66,SE,133,6.0,8.0,93,0.00,,,0.00,Wunderground v.1.15,2013-12-03 16:58:00,
2013-12-03 11:00:00,45.2,43.3,29.66,SSE,162,4.0,6.0,93,0.00,,,0.00,Wunderground v.1.15,2013-12-03 17:00:00,
2013-12-03 11:02:00,45.4,43.2,29.66,South,175,6.0,10.0,92,0.00,,,0.00,Wunderground v.1.15,2013-12-03 17:02:00,
2013-12-03 11:03:00,45.4,43.2,29.66,South,169,6.0,10.0,92,0.00,,,0.00,Wunderground v.1.15,2013-12-03 17:03:00,
2013-12-03 11:04:00,45.4,43.2,29.66,SE,146,7.0,10.0,92,0.00,,,0.00,Wunderground v.1.15,2013-12-03 17:04:00,
2013-12-03 11:05:00,45.5,43.3,29.66,SSE,163,5.0,10.0,92,0.00,,,0.00,Wunderground v.1.15,2013-12-03 17:05:00,
2013-12-03 11:07:00,45.7,43.8,29.65,SE,146,6.0,10.0,93,0.00,,,0.00,Wunderground v.1.15,2013-12-03 17:07:00,
2013-12-03 11:08:00,45.8,43.9,29.65,ESE,117,4.0,10.0,93,0.00,,,0.00,Wunderground v.1.15,2013-12-03 17:08:00,
2013-12-03 11:09:00,45.8,43.9,29.65,SE,140,6.0,10.0,93,0.00,,,0.00,Wunderground v.1.15,2013-12-03 17:09:00,
2013-12-03 11:10:00,46.0,44.1,29.65,SSE,160,9.0,9.0,93,0.00,,,0.00,Wunderground v.1.15,2013-12-03 17:10:00,
2013-12-03 11:11:00,46.0,44.1,29.65,SSE,151,8.0,9.0,93,0.00,,,0.00,Wunderground v.1.15,2013-12-03 17:11:00,
2013-12-03 11:12:00,46.0,44.1,29.65,SE,140,7.0,10.0,93,0.00,,,0.00,Wunderground v.1.15,2013-12-03 17:12:00,
2013-12-03 11:13:00,46.1,44.2,29.65,SE,146,8.0,10.0,93,0.00,,,0.00,Wunderground v.1.15,2013-12-03 17:13:00,
2013-12-03 11:14:00,46.1,44.2,29.65,SE,142,9.0,10.0,93,0.00,,,0.00,Wunderground v.1.15,2013-12-03 17:14:00,
2013-12-03 11:16:00,46.2,44.3,29.65,SE,139,6.0,10.0,93,0.00,,,0.00,Wunderground v.1.15,2013-12-03 17:16:00,
2013-12-03 11:17:00,46.2,44.3,29.65,SE,138,6.0,10.0,93,0.00,,,0.00,Wunderground v.1.15,2013-12-03 17:17:00,
2013-12-03 11:18:00,46.2,44.3,29.65,SSE,148,4.0,10.0,93,0.00,,,0.00,Wunderground v.1.15,2013-12-03 17:18:00,
2013-12-03 11:19:00,46.4,44.5,29.65,SSE,164,3.0,10.0,93,0.00,,,0.00,Wunderground v.1.15,2013-12-03 17:19:00,
2013-12-03 11:21:00,46.5,44.6,29.64,SSE,161,8.0,11.0,93,0.00,,,0.00,Wunderground v.1.15,2013-12-03 17:21:00,
2013-12-03 11:22:00,46.5,44.6,29.64,SE,131,9.0,11.0,93,0.00,,,0.00,Wunderground v.1.15,2013-12-03 17:22:00,
2013-12-03 11:23:00,46.5,44.6,29.64,SE,146,7.0,11.0,93,0.00,,,0.00,Wunderground v.1.15,2013-12-03 17:23:00,
2013-12-03 11:24:00,46.7,44.8,29.64,SSE,158,8.0,11.0,93,0.00,,,0.00,Wunderground v.1.15,2013-12-03 17:24:00,
2013-12-03 11:26:00,46.7,44.8,29.64,SE,142,5.0,11.0,93,0.00,,,0.00,Wunderground v.1.15,2013-12-03 17:26:00,
2013-12-03 11:27:00,46.8,44.9,29.64,South,171,3.0,11.0,93,0.00,,,0.00,Wunderground v.1.15,2013-12-03 17:27:00,
2013-12-03 11:29:00,46.8,44.9,29.64,SSE,150,8.0,11.0,93,0.00,,,0.00,Wunderground v.1.15,2013-12-03 17:29:00,
2013-12-03 11:30:00,47.0,45.1,29.64,SSE,149,9.0,11.0,93,0.00,,,0.00,Wunderground v.1.15,2013-12-03 17:30:00,
2013-12-03 11:31:00,47.0,45.1,29.64,SSE,162,7.0,10.0,93,0.00,,,0.00,Wunderground v.1.15,2013-12-03 17:31:00,
2013-12-03 11:32:00,47.0,45.1,29.64,SSE,159,4.0,10.0,93,0.00,,,0.00,Wunderground v.1.15,2013-12-03 17:32:00,
2013-12-03 11:34:00,47.0,45.1,29.64,SSE,150,3.0,10.0,93,0.00,,,0.00,Wunderground v.1.15,2013-12-03 17:34:00,
2013-12-03 11:35:00,47.1,45.2,29.64,SSE,163,4.0,10.0,93,0.00,,,0.00,Wunderground v.1.15,2013-12-03 17:35:00,
2013-12-03 11:37:00,47.1,45.2,29.64,SSE,161,5.0,10.0,93,0.00,,,0.00,Wunderground v.1.15,2013-12-03 17:37:00,
2013-12-03 11:38:00,47.1,45.2,29.64,SE,130,5.0,10.0,93,0.00,,,0.00,Wunderground v.1.15,2013-12-03 17:38:00,
2013-12-03 11:39:00,47.1,45.2,29.64,SE,143,10.0,10.0,93,0.00,,,0.00,Wunderground v.1.15,2013-12-03 17:39:00,
2013-12-03 11:41:00,47.3,45.4,29.64,SE,142,5.0,10.0,93,0.00,,,0.00,Wunderground v.1.15,2013-12-03 17:41:00,
2013-12-03 11:42:00,47.3,45.4,29.64,SE,139,5.0,11.0,93,0.00,,,0.00,Wunderground v.1.15,2013-12-03 17:42:00,
2013-12-03 11:44:00,47.3,45.4,29.64,SSE,156,6.0,11.0,93,0.00,,,0.00,Wunderground v.1.15,2013-12-03 17:44:00,
2013-12-03 11:45:00,47.3,45.4,29.64,SSE,152,6.0,11.0,93,0.00,,,0.00,Wunderground v.1.15,2013-12-03 17:45:00,
2013-12-03 11:46:00,47.3,45.4,29.64,SSE,161,5.0,11.0,93,0.00,,,0.00,Wunderground v.1.15,2013-12-03 17:46:00,
2013-12-03 11:47:00,47.4,45.5,29.64,SSE,150,5.0,11.0,93,0.00,,,0.00,Wunderground v.1.15,2013-12-03 17:47:00,
2013-12-03 11:50:00,47.4,45.5,29.64,SSE,153,9.0,11.0,93,0.00,,,0.00,Wunderground v.1.15,2013-12-03 17:50:00,
2013-12-03 11:51:00,47.4,45.5,29.64,SSE,159,6.0,12.0,93,0.00,,,0.00,Wunderground v.1.15,2013-12-03 17:51:00,
2013-12-03 11:52:00,47.4,45.5,29.64,SE,141,4.0,12.0,93,0.00,,,0.00,Wunderground v.1.15,2013-12-03 17:52:00,
2013-12-03 11:53:00,47.6,45.7,29.64,South,185,3.0,12.0,93,0.00,,,0.00,Wunderground v.1.15,2013-12-03 17:53:00,
2013-12-03 11:55:00,47.7,45.8,29.64,South,171,2.0,12.0,93,0.00,,,0.00,Wunderground v.1.15,2013-12-03 17:55:00,
2013-12-03 11:56:00,47.7,45.8,29.64,SSE,167,7.0,12.0,93,0.00,,,0.00,Wunderground v.1.15,2013-12-03 17:56:00,
2013-12-03 11:58:00,47.7,45.8,29.64,SSE,167,9.0,12.0,93,0.00,,,0.00,Wunderground v.1.15,2013-12-03 17:58:00,
2013-12-03 11:59:00,47.9,46.3,29.64,SE,134,6.0,12.0,94,0.00,,,0.00,Wunderground v.1.15,2013-12-03 17:59:00,
2013-12-03 12:00:00,47.9,46.3,29.64,SSE,158,8.0,12.0,94,0.00,,,0.00,Wunderground v.1.15,2013-12-03 18:00:00,
2013-12-03 12:01:00,47.9,46.0,29.64,South,188,8.0,12.0,93,0.00,,,0.00,Wunderground v.1.15,2013-12-03 18:01:00,
2013-12-03 12:02:00,47.9,46.0,29.64,SSE,152,7.0,12.0,93,0.00,,,0.00,Wunderground v.1.15,2013-12-03 18:02:00,
2013-12-03 12:03:00,48.0,46.4,29.64,SE,146,5.0,12.0,94,0.00,,,0.00,Wunderground v.1.15,2013-12-03 18:03:00,
2013-12-03 12:05:00,48.0,46.1,29.64,South,173,4.0,12.0,93,0.00,,,0.00,Wunderground v.1.15,2013-12-03 18:05:00,
2013-12-03 12:06:00,48.2,46.3,29.63,SE,136,9.0,13.0,93,0.00,,,0.00,Wunderground v.1.15,2013-12-03 18:06:00,
2013-12-03 12:07:00,48.2,46.3,29.63,SSE,167,6.0,13.0,93,0.00,,,0.00,Wunderground v.1.15,2013-12-03 18:07:00,
2013-12-03 12:08:00,48.2,46.3,29.63,SE,146,6.0,13.0,93,0.00,,,0.00,Wunderground v.1.15,2013-12-03 18:08:00,
2013-12-03 12:10:00,48.3,46.4,29.63,SE,143,6.0,7.0,93,0.00,,,0.00,Wunderground v.1.15,2013-12-03 18:10:00,
2013-12-03 12:11:00,48.3,46.4,29.63,SE,143,6.0,9.0,93,0.00,,,0.00,Wunderground v.1.15,2013-12-03 18:11:00,
2013-12-03 12:12:00,48.3,46.4,29.63,SSE,163,4.0,9.0,93,0.00,,,0.00,Wunderground v.1.15,2013-12-03 18:12:00,
2013-12-03 12:14:00,48.5,46.6,29.63,South,173,5.0,11.0,93,0.00,,,0.00,Wunderground v.1.15,2013-12-03 18:14:00,
2013-12-03 12:15:00,48.5,46.6,29.63,SSE,168,5.0,11.0,93,0.00,,,0.00,Wunderground v.1.15,2013-12-03 18:15:00,
2013-12-03 12:17:00,48.5,46.6,29.63,SSE,153,11.0,11.0,93,0.00,,,0.00,Wunderground v.1.15,2013-12-03 18:17:00,
2013-12-03 12:18:00,48.5,46.6,29.63,South,178,13.0,14.0,93,0.00,,,0.00,Wunderground v.1.15,2013-12-03 18:18:00,
2013-12-03 12:19:00,48.6,46.7,29.63,SE,140,9.0,14.0,93,0.00,,,0.00,Wunderground v.1.15,2013-12-03 18:19:00,
2013-12-03 12:20:00,48.6,46.7,29.63,SE,130,5.0,7.0,93,0.00,,,0.00,Wunderground v.1.15,2013-12-03 18:20:00,
2013-12-03 12:22:00,48.8,46.9,29.62,SE,146,9.0,10.0,93,0.00,,,0.00,Wunderground v.1.15,2013-12-03 18:22:00,
2013-12-03 12:23:00,48.8,46.9,29.62,SSW,194,7.0,10.0,93,0.00,,,0.00,Wunderground v.1.15,2013-12-03 18:23:00,
2013-12-03 12:24:00,48.8,46.9,29.62,SE,143,5.0,10.0,93,0.00,,,0.00,Wunderground v.1.15,2013-12-03 18:24:00,
2013-12-03 12:25:00,48.8,46.9,29.62,SE,142,8.0,11.0,93,0.00,,,0.00,Wunderground v.1.15,2013-12-03 18:25:00,
2013-12-03 12:26:00,48.9,47.0,29.62,SSW,194,5.0,11.0,93,0.00,,,0.00,Wunderground v.1.15,2013-12-03 18:26:00,
2013-12-03 12:28:00,48.9,47.0,29.62,SE,139,4.0,11.0,93,0.00,,,0.00,Wunderground v.1.15,2013-12-03 18:28:00,
2013-12-03 12:29:00,48.9,47.0,29.62,SSE,159,4.0,11.0,93,0.00,,,0.00,Wunderground v.1.15,2013-12-03 18:29:00,
2013-12-03 12:30:00,49.1,47.2,29.62,SSE,155,3.0,6.0,93,0.00,,,0.00,Wunderground v.1.15,2013-12-03 18:30:00,
2013-12-03 12:32:00,49.1,47.2,29.62,SSE,155,6.0,8.0,93,0.00,,,0.00,Wunderground v.1.15,2013-12-03 18:32:00,
2013-12-03 12:33:00,49.1,47.2,29.62,South,184,6.0,8.0,93,0.00,,,0.00,Wunderground v.1.15,2013-12-03 18:33:00,
2013-12-03 12:34:00,49.1,46.9,29.62,South,176,4.0,8.0,92,0.00,,,0.00,Wunderground v.1.15,2013-12-03 18:34:00,
2013-12-03 12:35:00,49.1,46.9,29.62,South,182,5.0,8.0,92,0.00,,,0.00,Wunderground v.1.15,2013-12-03 18:35:00,
2013-12-03 12:36:00,49.1,46.9,29.62,SE,146,7.0,8.0,92,0.00,,,0.00,Wunderground v.1.15,2013-12-03 18:36:00,
2013-12-03 12:37:00,49.2,47.0,29.63,SSE,156,6.0,9.0,92,0.00,,,0.00,Wunderground v.1.15,2013-12-03 18:37:00,
2013-12-03 12:38:00,49.2,47.0,29.63,SSE,165,5.0,9.0,92,0.00,,,0.00,Wunderground v.1.15,2013-12-03 18:38:00,
2013-12-03 12:40:00,49.2,47.0,29.63,SSE,157,9.0,12.0,92,0.00,,,0.00,Wunderground v.1.15,2013-12-03 18:40:00,
2013-12-03 12:41:00,49.2,47.0,29.63,SE,135,5.0,10.0,92,0.00,,,0.00,Wunderground v.1.15,2013-12-03 18:41:00,
2013-12-03 12:42:00,49.2,47.0,29.63,SSE,165,6.0,10.0,92,0.00,,,0.00,Wunderground v.1.15,2013-12-03 18:42:00,
2013-12-03 12:43:00,49.4,47.2,29.63,SE,146,7.0,10.0,92,0.00,,,0.00,Wunderground v.1.15,2013-12-03 18:43:00,
2013-12-03 12:45:00,49.4,47.2,29.63,SSE,148,5.0,10.0,92,0.00,,,0.00,Wunderground v.1.15,2013-12-03 18:45:00,
2013-12-03 12:46:00,49.4,47.2,29.63,South,170,4.0,10.0,92,0.00,,,0.00,Wunderground v.1.15,2013-12-03 18:46:00,
2013-12-03 12:47:00,49.4,47.2,29.63,SSE,155,5.0,10.0,92,0.00,,,0.00,Wunderground v.1.15,2013-12-03 18:47:00,
2013-12-03 12:48:00,49.4,47.2,29.63,SE,144,6.0,10.0,92,0.00,,,0.00,Wunderground v.1.15,2013-12-03 18:48:00,
2013-12-03 12:50:00,49.4,47.2,29.63,South,178,9.0,10.0,92,0.00,,,0.00,Wunderground v.1.15,2013-12-03 18:50:00,
2013-12-03 12:51:00,49.5,47.3,29.63,SSE,167,5.0,10.0,92,0.00,,,0.00,Wunderground v.1.15,2013-12-03 18:51:00,
2013-12-03 12:52:00,49.5,47.3,29.62,South,169,9.0,13.0,92,0.00,,,0.00,Wunderground v.1.15,2013-12-03 18:52:00,
2013-12-03 12:53:00,49.5,47.3,29.62,South,177,5.0,13.0,92,0.00,,,0.00,Wunderground v.1.15,2013-12-03 18:53:00,
2013-12-03 12:56:00,49.5,47.3,29.62,SSE,152,4.0,13.0,92,0.00,,,0.00,Wunderground v.1.15,2013-12-03 18:56:00,
2013-12-03 12:57:00,49.5,47.3,29.62,SSE,164,5.0,13.0,92,0.00,,,0.00,Wunderground v.1.15,2013-12-03 18:57:00,
2013-12-03 12:58:00,49.5,47.3,29.62,South,181,9.0,13.0,92,0.00,,,0.00,Wunderground v.1.15,2013-12-03 18:58:00,
2013-12-03 12:59:00,49.5,47.3,29.62,South,169,6.0,13.0,92,0.00,,,0.00,Wunderground v.1.15,2013-12-03 18:59:00,
2013-12-03 13:01:00,49.5,47.3,29.62,South,182,6.0,9.0,92,0.00,,,0.00,Wunderground v.1.15,2013-12-03 19:01:00,
2013-12-03 13:02:00,49.5,47.3,29.62,South,171,7.0,9.0,92,0.00,,,0.00,Wunderground v.1.15,2013-12-03 19:02:00,
2013-12-03 13:03:00,49.5,47.3,29.62,SSE,160,10.0,12.0,92,0.00,,,0.00,Wunderground v.1.15,2013-12-03 19:03:00,
2013-12-03 13:04:00,49.5,47.3,29.62,SSE,157,8.0,12.0,92,0.00,,,0.00,Wunderground v.1.15,2013-12-03 19:04:00,
2013-12-03 13:06:00,49.5,47.3,29.62,SSE,165,7.0,12.0,92,0.00,,,0.00,Wunderground v.1.15,2013-12-03 19:06:00,
2013-12-03 13:07:00,49.5,47.3,29.62,South,175,6.0,12.0,92,0.00,,,0.00,Wunderground v.1.15,2013-12-03 19:07:00,
2013-12-03 13:08:00,49.6,47.4,29.62,SE,130,6.0,12.0,92,0.00,,,0.00,Wunderground v.1.15,2013-12-03 19:08:00,
2013-12-03 13:09:00,49.6,47.4,29.62,SSE,160,6.0,12.0,92,0.00,,,0.00,Wunderground v.1.15,2013-12-03 19:09:00,
2013-12-03 13:11:00,49.6,47.4,29.62,SSE,148,10.0,11.0,92,0.00,,,0.00,Wunderground v.1.15,2013-12-03 19:11:00,
2013-12-03 13:12:00,49.6,47.4,29.62,SSE,155,7.0,11.0,92,0.00,,,0.00,Wunderground v.1.15,2013-12-03 19:12:00,
2013-12-03 13:13:00,49.6,47.4,29.62,SSE,161,6.0,12.0,92,0.00,,,0.00,Wunderground v.1.15,2013-12-03 19:13:00,
2013-12-03 13:14:00,49.6,47.4,29.62,SSE,165,12.0,13.0,92,0.00,,,0.00,Wunderground v.1.15,2013-12-03 19:14:00,
2013-12-03 13:15:00,49.6,47.4,29.62,SSE,164,7.0,13.0,92,0.00,,,0.00,Wunderground v.1.15,2013-12-03 19:15:00,
2013-12-03 13:16:00,49.6,47.4,29.62,SSE,152,5.0,13.0,92,0.00,,,0.00,Wunderground v.1.15,2013-12-03 19:16:00,
2013-12-03 13:17:00,49.6,47.4,29.62,South,172,5.0,13.0,92,0.00,,,0.00,Wunderground v.1.15,2013-12-03 19:17:00,
2013-12-03 13:18:00,49.6,47.4,29.62,SSE,163,6.0,13.0,92,0.00,,,0.00,Wunderground v.1.15,2013-12-03 19:18:00,
2013-12-03 13:19:00,49.6,47.4,29.62,SSE,162,5.0,13.0,92,0.00,,,0.00,Wunderground v.1.15,2013-12-03 19:19:00,
2013-12-03 13:21:00,49.8,47.6,29.62,SSE,153,4.0,8.0,92,0.00,,,0.00,Wunderground v.1.15,2013-12-03 19:21:00,
2013-12-03 13:22:00,49.8,47.6,29.62,SE,140,4.0,8.0,92,0.00,,,0.00,Wunderground v.1.15,2013-12-03 19:22:00,
2013-12-03 13:23:00,49.8,47.6,29.62,SSE,167,4.0,13.0,92,0.00,,,0.00,Wunderground v.1.15,2013-12-03 19:23:00,
2013-12-03 13:24:00,49.8,47.6,29.62,South,175,7.0,13.0,92,0.00,,,0.00,Wunderground v.1.15,2013-12-03 19:24:00,
2013-12-03 13:26:00,49.8,47.6,29.62,SSE,153,5.0,13.0,92,0.00,,,0.00,Wunderground v.1.15,2013-12-03 19:26:00,
2013-12-03 13:27:00,49.8,47.6,29.62,South,175,9.0,13.0,92,0.00,,,0.00,Wunderground v.1.15,2013-12-03 19:27:00,
2013-12-03 13:28:00,49.8,47.6,29.62,SE,142,9.0,13.0,92,0.00,,,0.00,Wunderground v.1.15,2013-12-03 19:28:00,
2013-12-03 13:30:00,49.8,47.6,29.62,South,175,5.0,7.0,92,0.00,,,0.00,Wunderground v.1.15,2013-12-03 19:30:00,
2013-12-03 13:31:00,49.8,47.6,29.62,SSE,156,6.0,11.0,92,0.00,,,0.00,Wunderground v.1.15,2013-12-03 19:31:00,
2013-12-03 13:32:00,49.8,47.6,29.62,SE,146,9.0,11.0,92,0.00,,,0.00,Wunderground v.1.15,2013-12-03 19:32:00,
2013-12-03 13:33:00,49.8,47.6,29.62,SE,146,5.0,11.0,92,0.00,,,0.00,Wunderground v.1.15,2013-12-03 19:33:00,
2013-12-03 13:35:00,49.9,47.7,29.62,SSE,155,11.0,11.0,92,0.00,,,0.00,Wunderground v.1.15,2013-12-03 19:35:00,
2013-12-03 13:36:00,49.9,47.7,29.62,SSE,148,9.0,11.0,92,0.00,,,0.00,Wunderground v.1.15,2013-12-03 19:36:00,
2013-12-03 13:37:00,49.9,47.7,29.62,SSE,154,9.0,13.0,92,0.00,,,0.00,Wunderground v.1.15,2013-12-03 19:37:00,
2013-12-03 13:38:00,49.9,47.7,29.62,SSE,157,11.0,13.0,92,0.00,,,0.00,Wunderground v.1.15,2013-12-03 19:38:00,
2013-12-03 13:40:00,49.9,47.7,29.62,South,169,8.0,9.0,92,0.00,,,0.00,Wunderground v.1.15,2013-12-03 19:40:00,
2013-12-03 13:41:00,49.9,47.7,29.62,SSE,153,7.0,9.0,92,0.00,,,0.00,Wunderground v.1.15,2013-12-03 19:41:00,
2013-12-03 13:43:00,50.1,47.9,29.62,SSE,161,6.0,11.0,92,0.00,,,0.00,Wunderground v.1.15,2013-12-03 19:43:00,
2013-12-03 13:46:00,50.1,47.9,29.62,South,169,9.0,13.0,92,0.00,,,0.00,Wunderground v.1.15,2013-12-03 19:46:00,
2013-12-03 13:47:00,50.1,47.9,29.62,SE,136,9.0,13.0,92,0.00,,,0.00,Wunderground v.1.15,2013-12-03 19:47:00,
2013-12-03 13:48:00,50.1,47.9,29.62,SE,136,4.0,13.0,92,0.00,,,0.00,Wunderground v.1.15,2013-12-03 19:48:00,
2013-12-03 13:49:00,50.1,47.9,29.62,South,171,5.0,13.0,92,0.00,,,0.00,Wunderground v.1.15,2013-12-03 19:49:00,
2013-12-03 13:51:00,50.1,47.9,29.62,SE,142,9.0,9.0,92,0.00,,,0.00,Wunderground v.1.15,2013-12-03 19:51:00,
2013-12-03 13:52:00,50.1,47.9,29.62,SSW,198,9.0,10.0,92,0.00,,,0.00,Wunderground v.1.15,2013-12-03 19:52:00,
2013-12-03 13:53:00,50.1,47.9,29.62,South,184,8.0,10.0,92,0.00,,,0.00,Wunderground v.1.15,2013-12-03 19:53:00,
2013-12-03 13:54:00,50.1,47.9,29.62,SE,142,6.0,12.0,92,0.00,,,0.00,Wunderground v.1.15,2013-12-03 19:54:00,
2013-12-03 13:56:00,50.1,47.9,29.62,SSE,151,5.0,12.0,92,0.00,,,0.00,Wunderground v.1.15,2013-12-03 19:56:00,
2013-12-03 13:57:00,50.1,47.9,29.62,South,184,4.0,12.0,92,0.00,,,0.00,Wunderground v.1.15,2013-12-03 19:57:00,
2013-12-03 13:59:00,50.1,47.9,29.62,SSE,165,7.0,12.0,92,0.00,,,0.00,Wunderground v.1.15,2013-12-03 19:59:00,
2013-12-03 14:00:00,50.1,47.9,29.62,SSE,150,6.0,7.0,92,0.00,,,0.00,Wunderground v.1.15,2013-12-03 20:00:00,
2013-12-03 14:01:00,50.1,47.9,29.62,SSW,210,3.0,10.0,92,0.00,,,0.00,Wunderground v.1.15,2013-12-03 20:01:00,
2013-12-03 14:02:00,50.1,47.9,29.62,South,184,2.0,10.0,92,0.00,,,0.00,Wunderground v.1.15,2013-12-03 20:02:00,
2013-12-03 14:04:00,50.1,47.9,29.62,South,172,6.0,10.0,92,0.00,,,0.00,Wunderground v.1.15,2013-12-03 20:04:00,
2013-12-03 14:06:00,50.1,47.9,29.62,SSE,156,7.0,10.0,92,0.00,,,0.00,Wunderground v.1.15,2013-12-03 20:06:00,
2013-12-03 14:08:00,50.1,47.9,29.62,SSE,150,7.0,10.0,92,0.00,,,0.00,Wunderground v.1.15,2013-12-03 20:08:00,
2013-12-03 14:09:00,50.1,47.9,29.62,South,175,4.0,10.0,92,0.00,,,0.00,Wunderground v.1.15,2013-12-03 20:09:00,
2013-12-03 14:11:00,50.1,47.9,29.62,South,178,4.0,8.0,92,0.00,,,0.00,Wunderground v.1.15,2013-12-03 20:11:00,
2013-12-03 14:14:00,50.1,47.9,29.62,SSE,153,6.0,9.0,92,0.00,,,0.00,Wunderground v.1.15,2013-12-03 20:14:00,
2013-12-03 14:16:00,50.1,47.9,29.62,SSE,148,4.0,9.0,92,0.00,,,0.00,Wunderground v.1.15,2013-12-03 20:16:00,
2013-12-03 14:17:00,50.1,47.9,29.62,SSW,198,4.0,9.0,92,0.00,,,0.00,Wunderground v.1.15,2013-12-03 20:17:00,
2013-12-03 14:19:00,50.1,47.9,29.62,SSE,153,1.0,9.0,92,0.00,,,0.00,Wunderground v.1.15,2013-12-03 20:19:00,
2013-12-03 14:20:00,50.1,47.9,29.62,SSW,200,7.0,7.0,92,0.00,,,0.00,Wunderground v.1.15,2013-12-03 20:20:00,
2013-12-03 14:21:00,50.1,47.9,29.62,SE,127,2.0,8.0,92,0.00,,,0.00,Wunderground v.1.15,2013-12-03 20:21:00,
2013-12-03 14:22:00,50.1,47.9,29.62,SSE,163,7.0,8.0,92,0.00,,,0.00,Wunderground v.1.15,2013-12-03 20:22:00,
2013-12-03 14:24:00,50.1,47.9,29.62,South,186,4.0,8.0,92,0.00,,,0.00,Wunderground v.1.15,2013-12-03 20:24:00,
2013-12-03 14:25:00,50.1,47.9,29.62,SSE,166,6.0,8.0,92,0.00,,,0.00,Wunderground v.1.15,2013-12-03 20:25:00,
2013-12-03 14:27:00,50.1,47.9,29.62,South,181,4.0,8.0,92,0.00,,,0.00,Wunderground v.1.15,2013-12-03 20:27:00,
2013-12-03 14:29:00,50.1,47.9,29.62,South,175,4.0,8.0,92,0.00,,,0.00,Wunderground v.1.15,2013-12-03 20:29:00,
2013-12-03 14:30:00,50.1,47.9,29.62,South,180,7.0,9.0,92,0.00,,,0.00,Wunderground v.1.15,2013-12-03 20:30:00,
2013-12-03 14:31:00,50.1,47.9,29.62,South,171,3.0,9.0,92,0.00,,,0.00,Wunderground v.1.15,2013-12-03 20:31:00,
2013-12-03 14:32:00,50.1,47.9,29.62,South,172,6.0,9.0,92,0.00,,,0.00,Wunderground v.1.15,2013-12-03 20:32:00,
2013-12-03 14:33:00,50.1,47.9,29.62,SSE,167,5.0,9.0,92,0.00,,,0.00,Wunderground v.1.15,2013-12-03 20:33:00,
2013-12-03 14:35:00,50.1,47.9,29.62,SSE,156,5.0,9.0,92,0.00,,,0.00,Wunderground v.1.15,2013-12-03 20:35:00,
2013-12-03 14:36:00,50.1,47.9,29.62,SSE,150,5.0,9.0,92,0.00,,,0.00,Wunderground v.1.15,2013-12-03 20:36:00,
2013-12-03 14:37:00,50.1,47.9,29.62,SSE,161,5.0,9.0,92,0.00,,,0.00,Wunderground v.1.15,2013-12-03 20:37:00,
2013-12-03 14:38:00,50.1,47.9,29.62,SSE,158,6.0,9.0,92,0.00,,,0.00,Wunderground v.1.15,2013-12-03 20:38:00,
2013-12-03 14:40:00,50.1,47.9,29.62,SSW,213,4.0,8.0,92,0.00,,,0.00,Wunderground v.1.15,2013-12-03 20:40:00,
2013-12-03 14:41:00,50.1,47.9,29.62,South,173,6.0,8.0,92,0.00,,,0.00,Wunderground v.1.15,2013-12-03 20:41:00,
2013-12-03 14:42:00,50.1,47.9,29.62,SSE,159,5.0,8.0,92,0.00,,,0.00,Wunderground v.1.15,2013-12-03 20:42:00,
2013-12-03 14:43:00,50.1,47.9,29.62,SSE,163,6.0,8.0,92,0.00,,,0.00,Wunderground v.1.15,2013-12-03 20:43:00,
2013-12-03 14:47:00,50.1,47.9,29.62,South,180,2.0,9.0,92,0.00,,,0.00,Wunderground v.1.15,2013-12-03 20:47:00,
2013-12-03 14:48:00,50.1,47.9,29.62,SSE,159,6.0,9.0,92,0.00,,,0.00,Wunderground v.1.15,2013-12-03 20:48:00,
2013-12-03 14:52:00,50.1,47.9,29.62,SSE,161,4.0,8.0,92,0.00,,,0.00,Wunderground v.1.15,2013-12-03 20:52:00,
2013-12-03 14:53:00,50.1,47.9,29.62,SSE,147,4.0,8.0,92,0.00,,,0.00,Wunderground v.1.15,2013-12-03 20:53:00,
2013-12-03 14:54:00,50.1,47.9,29.62,SSW,204,5.0,9.0,92,0.00,,,0.00,Wunderground v.1.15,2013-12-03 20:54:00,
2013-12-03 14:57:00,50.1,47.9,29.62,South,173,3.0,9.0,92,0.00,,,0.00,Wunderground v.1.15,2013-12-03 20:57:00,
2013-12-03 14:58:00,50.1,47.9,29.62,South,189,5.0,9.0,92,0.00,,,0.00,Wunderground v.1.15,2013-12-03 20:58:00,
2013-12-03 14:59:00,50.1,47.9,29.62,SE,140,5.0,9.0,92,0.00,,,0.00,Wunderground v.1.15,2013-12-03 20:59:00,
2013-12-03 15:03:00,50.1,47.9,29.62,SSE,153,2.0,6.0,92,0.00,,,0.00,Wunderground v.1.15,2013-12-03 21:03:00,
2013-12-03 15:04:00,50.1,47.9,29.62,SSE,150,3.0,6.0,92,0.00,,,0.00,Wunderground v.1.15,2013-12-03 21:04:00,
2013-12-03 15:05:00,50.1,47.9,29.62,South,171,3.0,6.0,92,0.00,,,0.00,Wunderground v.1.15,2013-12-03 21:05:00,
2013-12-03 15:08:00,50.1,47.9,29.62,South,173,5.0,7.0,92,0.00,,,0.00,Wunderground v.1.15,2013-12-03 21:08:00,
2013-12-03 15:10:00,50.1,47.9,29.62,SSE,168,4.0,5.0,92,0.00,,,0.00,Wunderground v.1.15,2013-12-03 21:10:00,
2013-12-03 15:13:00,50.1,47.9,29.62,SSE,155,4.0,8.0,92,0.00,,,0.00,Wunderground v.1.15,2013-12-03 21:13:00,
2013-12-03 15:14:00,50.1,47.9,29.62,SSE,148,4.0,8.0,92,0.00,,,0.00,Wunderground v.1.15,2013-12-03 21:14:00,
2013-12-03 15:15:00,50.1,47.9,29.62,South,177,3.0,8.0,92,0.00,,,0.00,Wunderground v.1.15,2013-12-03 21:15:00,
2013-12-03 15:16:00,50.1,47.9,29.62,South,170,3.0,8.0,92,0.00,,,0.00,Wunderground v.1.15,2013-12-03 21:16:00,
2013-12-03 15:18:00,50.1,47.9,29.62,SE,140,4.0,8.0,92,0.00,,,0.00,Wunderground v.1.15,2013-12-03 21:18:00,
2013-12-03 15:19:00,50.1,47.9,29.62,SSE,158,5.0,8.0,92,0.00,,,0.00,Wunderground v.1.15,2013-12-03 21:19:00,
2013-12-03 15:21:00,50.1,47.9,29.62,SSE,167,3.0,8.0,92,0.00,,,0.00,Wunderground v.1.15,2013-12-03 21:21:00,
2013-12-03 15:24:00,50.2,48.0,29.62,SSE,148,6.0,8.0,92,0.00,,,0.00,Wunderground v.1.15,2013-12-03 21:24:00,
2013-12-03 15:25:00,50.2,48.0,29.62,South,175,2.0,8.0,92,0.00,,,0.00,Wunderground v.1.15,2013-12-03 21:25:00,
2013-12-03 15:26:00,50.2,48.0,29.62,South,171,2.0,8.0,92,0.00,,,0.00,Wunderground v.1.15,2013-12-03 21:26:00,
2013-12-03 15:27:00,50.2,48.0,29.62,SSE,166,3.0,8.0,92,0.00,,,0.00,Wunderground v.1.15,2013-12-03 21:27:00,
2013-12-03 15:29:00,50.2,48.0,29.62,SSE,166,4.0,8.0,92,0.00,,,0.00,Wunderground v.1.15,2013-12-03 21:29:00,
2013-12-03 15:31:00,50.2,48.0,29.62,SSE,150,5.0,7.0,92,0.00,,,0.00,Wunderground v.1.15,2013-12-03 21:31:00,
2013-12-03 15:32:00,50.2,48.0,29.62,South,182,5.0,8.0,92,0.00,,,0.00,Wunderground v.1.15,2013-12-03 21:32:00,
2013-12-03 15:34:00,50.2,48.0,29.62,SSE,163,5.0,8.0,92,0.00,,,0.00,Wunderground v.1.15,2013-12-03 21:34:00,
2013-12-03 15:36:00,50.1,47.9,29.62,SSE,157,4.0,8.0,92,0.00,,,0.00,Wunderground v.1.15,2013-12-03 21:36:00,
2013-12-03 15:38:00,50.1,47.9,29.62,SSE,152,4.0,8.0,92,0.00,,,0.00,Wunderground v.1.15,2013-12-03 21:38:00,
2013-12-03 15:39:00,50.1,47.9,29.62,SSE,156,3.0,8.0,92,0.00,,,0.00,Wunderground v.1.15,2013-12-03 21:39:00,
2013-12-03 15:40:00,50.1,47.9,29.62,SSE,158,3.0,8.0,92,0.00,,,0.00,Wunderground v.1.15,2013-12-03 21:40:00,
2013-12-03 15:41:00,50.1,47.9,29.62,SSE,154,5.0,6.0,92,0.00,,,0.00,Wunderground v.1.15,2013-12-03 21:41:00,
2013-12-03 15:42:00,50.1,47.9,29.62,SSE,152,4.0,6.0,92,0.00,,,0.00,Wunderground v.1.15,2013-12-03 21:42:00,
2013-12-03 15:44:00,50.1,47.9,29.62,South,182,5.0,8.0,92,0.00,,,0.00,Wunderground v.1.15,2013-12-03 21:44:00,
2013-12-03 15:45:00,50.1,47.9,29.62,SSE,154,4.0,8.0,92,0.00,,,0.00,Wunderground v.1.15,2013-12-03 21:45:00,
2013-12-03 15:46:00,50.1,47.9,29.62,SSE,163,5.0,8.0,92,0.00,,,0.00,Wunderground v.1.15,2013-12-03 21:46:00,
2013-12-03 15:47:00,50.1,47.9,29.62,South,169,6.0,8.0,92,0.00,,,0.00,Wunderground v.1.15,2013-12-03 21:47:00,
2013-12-03 15:50:00,50.1,47.9,29.62,SSW,202,5.0,5.0,92,0.00,,,0.00,Wunderground v.1.15,2013-12-03 21:50:00,
2013-12-03 15:51:00,50.1,47.9,29.62,South,173,2.0,5.0,92,0.00,,,0.00,Wunderground v.1.15,2013-12-03 21:51:00,
2013-12-03 15:52:00,50.1,47.9,29.62,South,182,4.0,7.0,92,0.00,,,0.00,Wunderground v.1.15,2013-12-03 21:52:00,
2013-12-03 15:55:00,50.1,47.9,29.62,SSE,167,3.0,7.0,92,0.00,,,0.00,Wunderground v.1.15,2013-12-03 21:55:00,
2013-12-03 15:56:00,50.1,47.9,29.62,SSE,148,5.0,7.0,92,0.00,,,0.00,Wunderground v.1.15,2013-12-03 21:56:00,
2013-12-03 15:57:00,50.1,47.9,29.62,South,177,5.0,7.0,92,0.00,,,0.00,Wunderground v.1.15,2013-12-03 21:57:00,
2013-12-03 15:58:00,50.1,47.9,29.62,SE,140,4.0,7.0,92,0.00,,,0.00,Wunderground v.1.15,2013-12-03 21:58:00,
2013-12-03 16:00:00,50.1,47.9,29.62,SSE,157,7.0,7.0,92,0.00,,,0.00,Wunderground v.1.15,2013-12-03 22:00:00,
2013-12-03 16:01:00,50.1,47.9,29.62,SSE,165,5.0,9.0,92,0.00,,,0.00,Wunderground v.1.15,2013-12-03 22:01:00,
2013-12-03 16:02:00,50.1,47.9,29.62,SSE,157,3.0,9.0,92,0.00,,,0.00,Wunderground v.1.15,2013-12-03 22:02:00,
2013-12-03 16:03:00,50.1,47.9,29.62,South,169,2.0,9.0,92,0.00,,,0.00,Wunderground v.1.15,2013-12-03 22:03:00,
2013-12-03 16:05:00,50.1,47.9,29.62,South,171,5.0,9.0,92,0.00,,,0.00,Wunderground v.1.15,2013-12-03 22:05:00,
2013-12-03 16:06:00,50.1,47.9,29.62,South,171,5.0,9.0,92,0.00,,,0.00,Wunderground v.1.15,2013-12-03 22:06:00,
2013-12-03 16:07:00,50.1,47.9,29.63,South,169,4.0,9.0,92,0.00,,,0.00,Wunderground v.1.15,2013-12-03 22:07:00,
2013-12-03 16:09:00,50.1,47.9,29.63,South,185,5.0,9.0,92,0.00,,,0.00,Wunderground v.1.15,2013-12-03 22:09:00,
2013-12-03 16:11:00,50.1,47.9,29.63,South,173,5.0,10.0,92,0.00,,,0.00,Wunderground v.1.15,2013-12-03 22:11:00,
2013-12-03 16:12:00,50.1,47.9,29.63,SSE,163,5.0,10.0,92,0.00,,,0.00,Wunderground v.1.15,2013-12-03 22:12:00,
2013-12-03 16:13:00,50.1,47.9,29.63,SSE,153,6.0,10.0,92,0.00,,,0.00,Wunderground v.1.15,2013-12-03 22:13:00,
2013-12-03 16:14:00,50.1,47.9,29.63,SSE,155,3.0,10.0,92,0.00,,,0.00,Wunderground v.1.15,2013-12-03 22:14:00,
2013-12-03 16:16:00,50.1,47.9,29.63,South,180,8.0,10.0,92,0.00,,,0.00,Wunderground v.1.15,2013-12-03 22:16:00,
2013-12-03 16:17:00,50.1,47.9,29.63,SE,142,4.0,10.0,92,0.00,,,0.00,Wunderground v.1.15,2013-12-03 22:17:00,
2013-12-03 16:18:00,50.1,47.9,29.63,SE,138,7.0,10.0,92,0.00,,,0.00,Wunderground v.1.15,2013-12-03 22:18:00,
2013-12-03 16:19:00,50.1,47.9,29.63,South,185,4.0,10.0,92,0.00,,,0.00,Wunderground v.1.15,2013-12-03 22:19:00,
2013-12-03 16:20:00,50.1,47.9,29.63,SE,137,14.0,14.0,92,0.00,,,0.00,Wunderground v.1.15,2013-12-03 22:20:00,
2013-12-03 16:21:00,49.9,47.7,29.62,SSW,205,6.0,14.0,92,0.00,,,0.00,Wunderground v.1.15,2013-12-03 22:21:00,
2013-12-03 16:22:00,49.9,47.7,29.62,SSE,155,9.0,14.0,92,0.00,,,0.00,Wunderground v.1.15,2013-12-03 22:22:00,
2013-12-03 16:23:00,49.9,47.7,29.62,SE,142,7.0,14.0,92,0.00,,,0.00,Wunderground v.1.15,2013-12-03 22:23:00,
2013-12-03 16:24:00,49.9,47.7,29.62,SSE,162,4.0,14.0,92,0.00,,,0.00,Wunderground v.1.15,2013-12-03 22:24:00,
2013-12-03 16:25:00,49.9,47.7,29.62,South,174,3.0,14.0,92,0.00,,,0.00,Wunderground v.1.15,2013-12-03 22:25:00,
2013-12-03 16:26:00,49.9,47.7,29.62,SSE,152,7.0,14.0,92,0.00,,,0.00,Wunderground v.1.15,2013-12-03 22:26:00,
2013-12-03 16:27:00,49.9,47.7,29.62,SSE,155,6.0,14.0,92,0.00,,,0.00,Wunderground v.1.15,2013-12-03 22:27:00,
2013-12-03 16:28:00,49.9,47.7,29.62,South,169,6.0,14.0,92,0.00,,,0.00,Wunderground v.1.15,2013-12-03 22:28:00,
2013-12-03 16:29:00,49.9,47.7,29.62,SSE,165,6.0,14.0,92,0.00,,,0.00,Wunderground v.1.15,2013-12-03 22:29:00,
2013-12-03 16:31:00,49.8,47.6,29.62,SSE,154,5.0,6.0,92,0.00,,,0.00,Wunderground v.1.15,2013-12-03 22:31:00,
2013-12-03 16:33:00,49.8,47.6,29.62,SSW,198,6.0,9.0,92,0.00,,,0.00,Wunderground v.1.15,2013-12-03 22:33:00,
2013-12-03 16:34:00,49.8,47.6,29.62,SSE,155,5.0,10.0,92,0.00,,,0.00,Wunderground v.1.15,2013-12-03 22:34:00,
2013-12-03 16:36:00,49.8,47.6,29.62,SSE,158,5.0,10.0,92,0.00,,,0.00,Wunderground v.1.15,2013-12-03 22:36:00,
2013-12-03 16:38:00,49.8,47.6,29.62,SSE,159,3.0,10.0,92,0.00,,,0.00,Wunderground v.1.15,2013-12-03 22:38:00,
2013-12-03 16:39:00,49.8,47.6,29.62,SSE,168,4.0,10.0,92,0.00,,,0.00,Wunderground v.1.15,2013-12-03 22:39:00,
2013-12-03 16:41:00,49.8,47.6,29.62,SSE,159,2.0,7.0,92,0.00,,,0.00,Wunderground v.1.15,2013-12-03 22:41:00,
2013-12-03 16:42:00,49.8,47.6,29.62,SSE,147,4.0,7.0,92,0.00,,,0.00,Wunderground v.1.15,2013-12-03 22:42:00,
2013-12-03 16:43:00,49.6,47.4,29.62,SSE,157,4.0,8.0,92,0.00,,,0.00,Wunderground v.1.15,2013-12-03 22:43:00,
2013-12-03 16:44:00,49.6,47.4,29.62,SSE,153,6.0,8.0,92,0.00,,,0.00,Wunderground v.1.15,2013-12-03 22:44:00,
2013-12-03 16:45:00,49.6,47.4,29.62,SSE,159,7.0,8.0,92,0.00,,,0.00,Wunderground v.1.15,2013-12-03 22:45:00,
2013-12-03 16:46:00,49.6,47.4,29.62,SSE,152,7.0,12.0,92,0.00,,,0.00,Wunderground v.1.15,2013-12-03 22:46:00,
2013-12-03 16:47:00,49.6,47.4,29.62,SSE,167,3.0,12.0,92,0.00,,,0.00,Wunderground v.1.15,2013-12-03 22:47:00,
2013-12-03 16:49:00,49.6,47.4,29.62,SSW,199,5.0,12.0,92,0.00,,,0.00,Wunderground v.1.15,2013-12-03 22:49:00,
2013-12-03 16:50:00,49.6,47.4,29.62,SSE,157,6.0,6.0,92,0.00,,,0.00,Wunderground v.1.15,2013-12-03 22:50:00,
2013-12-03 16:51:00,49.6,47.4,29.62,SSE,153,8.0,9.0,92,0.00,,,0.00,Wunderground v.1.15,2013-12-03 22:51:00,
2013-12-03 16:52:00,49.5,47.3,29.62,SSE,154,3.0,9.0,92,0.00,,,0.00,Wunderground v.1.15,2013-12-03 22:52:00,
2013-12-03 16:54:00,49.5,47.3,29.62,SE,143,4.0,9.0,92,0.00,,,0.00,Wunderground v.1.15,2013-12-03 22:54:00,
2013-12-03 16:55:00,49.5,47.3,29.62,SSE,161,6.0,9.0,92,0.00,,,0.00,Wunderground v.1.15,2013-12-03 22:55:00,
2013-12-03 16:56:00,49.5,47.3,29.62,SE,135,6.0,9.0,92,0.00,,,0.00,Wunderground v.1.15,2013-12-03 22:56:00,
2013-12-03 16:57:00,49.5,47.3,29.62,SE,132,6.0,9.0,92,0.00,,,0.00,Wunderground v.1.15,2013-12-03 22:57:00,
2013-12-03 16:59:00,49.5,47.3,29.62,SE,126,6.0,11.0,92,0.00,,,0.00,Wunderground v.1.15,2013-12-03 22:59:00,
2013-12-03 17:01:00,49.4,47.5,29.62,SSE,162,5.0,8.0,93,0.00,,,0.00,Wunderground v.1.15,2013-12-03 23:01:00,
2013-12-03 17:02:00,49.4,47.5,29.62,SSE,165,6.0,8.0,93,0.00,,,0.00,Wunderground v.1.15,2013-12-03 23:02:00,
2013-12-03 17:03:00,49.4,47.5,29.62,SSE,149,7.0,8.0,93,0.00,,,0.00,Wunderground v.1.15,2013-12-03 23:03:00,
2013-12-03 17:04:00,49.4,47.5,29.62,SSE,159,3.0,9.0,93,0.00,,,0.00,Wunderground v.1.15,2013-12-03 23:04:00,
2013-12-03 17:06:00,49.4,47.5,29.63,South,179,6.0,10.0,93,0.00,,,0.00,Wunderground v.1.15,2013-12-03 23:06:00,
2013-12-03 17:07:00,49.4,47.2,29.63,South,174,4.0,10.0,92,0.00,,,0.00,Wunderground v.1.15,2013-12-03 23:07:00,
2013-12-03 17:08:00,49.4,47.5,29.63,SSE,162,6.0,10.0,93,0.00,,,0.00,Wunderground v.1.15,2013-12-03 23:08:00,
2013-12-03 17:09:00,49.4,47.5,29.63,SSE,153,7.0,10.0,93,0.00,,,0.00,Wunderground v.1.15,2013-12-03 23:09:00,
2013-12-03 17:11:00,49.4,47.5,29.63,SE,134,6.0,10.0,93,0.00,,,0.00,Wunderground v.1.15,2013-12-03 23:11:00,
2013-12-03 17:12:00,49.4,47.5,29.63,South,181,3.0,10.0,93,0.00,,,0.00,Wunderground v.1.15,2013-12-03 23:12:00,
2013-12-03 17:13:00,49.4,47.5,29.63,South,174,4.0,10.0,93,0.00,,,0.00,Wunderground v.1.15,2013-12-03 23:13:00,
2013-12-03 17:14:00,49.4,47.5,29.63,SSE,168,8.0,10.0,93,0.00,,,0.00,Wunderground v.1.15,2013-12-03 23:14:00,
2013-12-03 17:15:00,49.4,47.5,29.63,SE,140,5.0,10.0,93,0.00,,,0.00,Wunderground v.1.15,2013-12-03 23:15:00,
2013-12-03 17:16:00,49.4,47.5,29.63,SSE,157,6.0,10.0,93,0.00,,,0.00,Wunderground v.1.15,2013-12-03 23:16:00,
2013-12-03 17:17:00,49.4,47.5,29.63,SSE,151,11.0,11.0,93,0.00,,,0.00,Wunderground v.1.15,2013-12-03 23:17:00,
2013-12-03 17:18:00,49.4,47.5,29.63,SSE,156,8.0,11.0,93,0.00,,,0.00,Wunderground v.1.15,2013-12-03 23:18:00,
2013-12-03 17:19:00,49.4,47.5,29.63,SE,145,5.0,11.0,93,0.00,,,0.00,Wunderground v.1.15,2013-12-03 23:19:00,
2013-12-03 17:20:00,49.4,47.5,29.63,South,171,4.0,6.0,93,0.00,,,0.00,Wunderground v.1.15,2013-12-03 23:20:00,
2013-12-03 17:22:00,49.2,47.3,29.62,SSE,163,5.0,7.0,93,0.00,,,0.00,Wunderground v.1.15,2013-12-03 23:22:00,
2013-12-03 17:23:00,49.2,47.3,29.62,South,180,4.0,7.0,93,0.00,,,0.00,Wunderground v.1.15,2013-12-03 23:23:00,
2013-12-03 17:24:00,49.2,47.3,29.62,SSE,157,13.0,13.0,93,0.00,,,0.00,Wunderground v.1.15,2013-12-03 23:24:00,
2013-12-03 17:25:00,49.2,47.3,29.62,SSE,150,6.0,13.0,93,0.00,,,0.00,Wunderground v.1.15,2013-12-03 23:25:00,
2013-12-03 17:27:00,49.2,47.3,29.62,SSE,161,3.0,13.0,93,0.00,,,0.00,Wunderground v.1.15,2013-12-03 23:27:00,
2013-12-03 17:28:00,49.2,47.3,29.62,SSE,157,10.0,13.0,93,0.00,,,0.00,Wunderground v.1.15,2013-12-03 23:28:00,
2013-12-03 17:29:00,49.2,47.3,29.62,SE,135,7.0,13.0,93,0.00,,,0.00,Wunderground v.1.15,2013-12-03 23:29:00,
2013-12-03 17:30:00,49.2,47.3,29.62,SSE,152,9.0,10.0,93,0.00,,,0.00,Wunderground v.1.15,2013-12-03 23:30:00,
2013-12-03 17:33:00,49.1,47.2,29.62,SSE,150,9.0,11.0,93,0.00,,,0.00,Wunderground v.1.15,2013-12-03 23:33:00,
2013-12-03 17:35:00,49.1,47.2,29.62,SSE,165,6.0,13.0,93,0.00,,,0.00,Wunderground v.1.15,2013-12-03 23:35:00,
2013-12-03 17:36:00,49.1,47.2,29.62,SSE,155,10.0,13.0,93,0.00,,,0.00,Wunderground v.1.15,2013-12-03 23:36:00,
2013-12-03 17:38:00,48.9,47.0,29.62,SE,142,6.0,13.0,93,0.00,,,0.00,Wunderground v.1.15,2013-12-03 23:38:00,
2013-12-03 17:39:00,48.9,47.2,29.62,SSE,167,6.0,13.0,94,0.00,,,0.00,Wunderground v.1.15,2013-12-03 23:39:00,
2013-12-03 17:40:00,48.9,47.2,29.62,SSE,158,12.0,12.0,94,0.00,,,0.00,Wunderground v.1.15,2013-12-03 23:40:00,
2013-12-03 17:41:00,48.9,47.2,29.62,South,169,7.0,12.0,94,0.00,,,0.00,Wunderground v.1.15,2013-12-03 23:41:00,
2013-12-03 17:43:00,48.9,47.2,29.62,SSE,168,4.0,15.0,94,0.00,,,0.00,Wunderground v.1.15,2013-12-03 23:43:00,
2013-12-03 17:44:00,48.8,47.2,29.62,SSE,150,6.0,15.0,94,0.00,,,0.00,Wunderground v.1.15,2013-12-03 23:44:00,
2013-12-03 17:45:00,48.8,47.2,29.62,SE,138,12.0,15.0,94,0.00,,,0.00,Wunderground v.1.15,2013-12-03 23:45:00,
2013-12-03 17:46:00,48.8,47.2,29.62,SSE,157,10.0,15.0,94,0.00,,,0.00,Wunderground v.1.15,2013-12-03 23:46:00,
2013-12-03 17:48:00,48.8,47.2,29.62,SSE,161,6.0,15.0,94,0.00,,,0.00,Wunderground v.1.15,2013-12-03 23:48:00,
2013-12-03 17:51:00,48.8,47.2,29.62,SE,138,8.0,9.0,94,0.00,,,0.00,Wunderground v.1.15,2013-12-03 23:51:00,
2013-12-03 17:52:00,48.8,47.2,29.61,South,169,9.0,14.0,94,0.00,,,0.00,Wunderground v.1.15,2013-12-03 23:52:00,
2013-12-03 17:53:00,48.8,47.4,29.61,South,174,7.0,14.0,95,0.00,,,0.00,Wunderground v.1.15,2013-12-03 23:53:00,
2013-12-03 17:56:00,48.8,47.4,29.61,SSE,155,10.0,14.0,95,0.00,,,0.00,Wunderground v.1.15,2013-12-03 23:56:00,
2013-12-03 17:57:00,48.8,47.4,29.61,SE,143,8.0,14.0,95,0.00,,,0.00,Wunderground v.1.15,2013-12-03 23:57:00,
2013-12-03 17:58:00,48.8,47.4,29.61,SSE,167,7.0,14.0,95,0.00,,,0.00,Wunderground v.1.15,2013-12-03 23:58:00,
2013-12-03 18:01:00,48.6,47.2,29.61,SE,140,10.0,16.0,95,0.00,,,0.00,Wunderground v.1.15,2013-12-04 00:01:00,
2013-12-03 18:02:00,48.6,47.2,29.61,SSE,158,7.0,16.0,95,0.00,,,0.00,Wunderground v.1.15,2013-12-04 00:02:00,
2013-12-03 18:03:00,48.6,47.2,29.61,South,173,8.0,16.0,95,0.00,,,0.00,Wunderground v.1.15,2013-12-04 00:03:00,
2013-12-03 18:06:00,48.6,47.2,29.62,SE,127,6.0,16.0,95,0.00,,,0.00,Wunderground v.1.15,2013-12-04 00:06:00,
2013-12-03 18:07:00,48.6,47.2,29.62,SE,145,10.0,16.0,95,0.00,,,0.00,Wunderground v.1.15,2013-12-04 00:07:00,
2013-12-03 18:08:00,48.6,47.2,29.62,SE,138,11.0,16.0,95,0.00,,,0.00,Wunderground v.1.15,2013-12-04 00:08:00,
2013-12-03 18:09:00,48.6,47.2,29.62,SSE,163,14.0,16.0,95,0.00,,,0.00,Wunderground v.1.15,2013-12-04 00:09:00,
2013-12-03 18:11:00,48.6,47.2,29.62,South,173,9.0,13.0,95,0.00,,,0.00,Wunderground v.1.15,2013-12-04 00:11:00,
2013-12-03 18:12:00,48.6,47.2,29.62,SE,140,10.0,13.0,95,0.00,,,0.00,Wunderground v.1.15,2013-12-04 00:12:00,
2013-12-03 18:13:00,48.6,47.2,29.62,SE,130,5.0,13.0,95,0.00,,,0.00,Wunderground v.1.15,2013-12-04 00:13:00,
2013-12-03 18:14:00,48.6,47.2,29.62,SSW,200,5.0,13.0,95,0.00,,,0.00,Wunderground v.1.15,2013-12-04 00:14:00,
2013-12-03 18:16:00,48.5,47.1,29.62,SSE,155,9.0,13.0,95,0.00,,,0.00,Wunderground v.1.15,2013-12-04 00:16:00,
2013-12-03 18:18:00,48.5,47.4,29.62,SE,128,12.0,17.0,96,0.00,,,0.00,Wunderground v.1.15,2013-12-04 00:18:00,
2013-12-03 18:19:00,48.5,47.4,29.62,SE,136,8.0,17.0,96,0.00,,,0.00,Wunderground v.1.15,2013-12-04 00:19:00,
2013-12-03 18:21:00,48.5,47.4,29.62,SSE,159,10.0,15.0,96,0.00,,,0.00,Wunderground v.1.15,2013-12-04 00:21:00,
2013-12-03 18:23:00,48.5,47.4,29.62,SSE,153,6.0,15.0,96,0.00,,,0.00,Wunderground v.1.15,2013-12-04 00:23:00,
2013-12-03 18:24:00,48.5,47.4,29.62,SE,142,9.0,15.0,96,0.00,,,0.00,Wunderground v.1.15,2013-12-04 00:24:00,
2013-12-03 18:25:00,48.5,47.4,29.62,SSE,166,10.0,15.0,96,0.00,,,0.00,Wunderground v.1.15,2013-12-04 00:25:00,
2013-12-03 18:27:00,48.5,47.4,29.62,SE,144,12.0,17.0,96,0.00,,,0.00,Wunderground v.1.15,2013-12-04 00:27:00,
2013-12-03 18:28:00,48.5,47.4,29.62,South,190,8.0,17.0,96,0.00,,,0.00,Wunderground v.1.15,2013-12-04 00:28:00,
2013-12-03 18:29:00,48.5,47.4,29.62,SSE,155,5.0,17.0,96,0.00,,,0.00,Wunderground v.1.15,2013-12-04 00:29:00,
2013-12-03 18:30:00,48.5,47.4,29.62,South,173,7.0,9.0,96,0.00,,,0.00,Wunderground v.1.15,2013-12-04 00:30:00,
2013-12-03 18:32:00,48.5,47.4,29.62,SSE,165,6.0,11.0,96,0.00,,,0.00,Wunderground v.1.15,2013-12-04 00:32:00,
2013-12-03 18:33:00,48.5,47.4,29.62,South,171,7.0,11.0,96,0.00,,,0.00,Wunderground v.1.15,2013-12-04 00:33:00,
2013-12-03 18:34:00,48.5,47.4,29.62,SSE,166,5.0,11.0,96,0.00,,,0.00,Wunderground v.1.15,2013-12-04 00:34:00,
2013-12-03 18:35:00,48.5,47.4,29.62,South,173,8.0,16.0,96,0.00,,,0.00,Wunderground v.1.15,2013-12-04 00:35:00,
2013-12-03 18:36:00,48.5,47.4,29.63,SSE,157,8.0,16.0,96,0.00,,,0.00,Wunderground v.1.15,2013-12-04 00:36:00,
2013-12-03 18:37:00,48.5,47.4,29.63,SSE,157,4.0,16.0,96,0.00,,,0.00,Wunderground v.1.15,2013-12-04 00:37:00,
2013-12-03 18:39:00,48.5,47.4,29.63,SSE,165,5.0,16.0,96,0.00,,,0.00,Wunderground v.1.15,2013-12-04 00:39:00,
2013-12-03 18:40:00,48.5,47.4,29.63,South,170,1.0,7.0,96,0.00,,,0.00,Wunderground v.1.15,2013-12-04 00:40:00,
2013-12-03 18:42:00,48.5,47.4,29.63,SSE,159,6.0,9.0,96,0.00,,,0.00,Wunderground v.1.15,2013-12-04 00:42:00,
2013-12-03 18:44:00,48.5,47.4,29.63,South,169,3.0,9.0,96,0.00,,,0.00,Wunderground v.1.15,2013-12-04 00:44:00,
2013-12-03 18:45:00,48.5,47.4,29.63,SSE,165,4.0,9.0,96,0.00,,,0.00,Wunderground v.1.15,2013-12-04 00:45:00,
2013-12-03 18:46:00,48.5,47.4,29.63,SSE,161,6.0,9.0,96,0.00,,,0.00,Wunderground v.1.15,2013-12-04 00:46:00,
2013-12-03 18:48:00,48.5,47.4,29.63,SSE,151,6.0,11.0,96,0.00,,,0.00,Wunderground v.1.15,2013-12-04 00:48:00,
2013-12-03 18:49:00,48.5,47.4,29.63,SE,144,10.0,14.0,96,0.00,,,0.00,Wunderground v.1.15,2013-12-04 00:49:00,
2013-12-03 18:50:00,48.5,47.4,29.63,SSE,155,7.0,7.0,96,0.00,,,0.00,Wunderground v.1.15,2013-12-04 00:50:00,
2013-12-03 18:51:00,48.5,47.4,29.64,SSE,148,9.0,9.0,96,0.00,,,0.00,Wunderground v.1.15,2013-12-04 00:51:00,
2013-12-03 18:53:00,48.5,47.4,29.64,SSE,164,5.0,9.0,96,0.00,,,0.00,Wunderground v.1.15,2013-12-04 00:53:00,
2013-12-03 18:54:00,48.5,47.4,29.64,South,178,8.0,9.0,96,0.00,,,0.00,Wunderground v.1.15,2013-12-04 00:54:00,
2013-12-03 18:55:00,48.5,47.4,29.64,South,183,7.0,12.0,96,0.00,,,0.00,Wunderground v.1.15,2013-12-04 00:55:00,
2013-12-03 18:56:00,48.5,47.4,29.64,SSE,167,4.0,12.0,96,0.00,,,0.00,Wunderground v.1.15,2013-12-04 00:56:00,
2013-12-03 18:58:00,48.5,47.4,29.64,SSW,194,4.0,12.0,96,0.00,,,0.00,Wunderground v.1.15,2013-12-04 00:58:00,
2013-12-03 18:59:00,48.5,47.4,29.64,SE,136,6.0,12.0,96,0.00,,,0.00,Wunderground v.1.15,2013-12-04 00:59:00,
2013-12-03 19:00:00,48.5,47.4,29.64,South,179,6.0,9.0,96,0.00,,,0.00,Wunderground v.1.15,2013-12-04 01:00:00,
2013-12-03 19:01:00,48.5,47.4,29.64,SSE,160,8.0,9.0,96,0.00,,,0.00,Wunderground v.1.15,2013-12-04 01:01:00,
2013-12-03 19:02:00,48.5,47.4,29.64,South,172,3.0,10.0,96,0.00,,,0.00,Wunderground v.1.15,2013-12-04 01:02:00,
2013-12-03 19:03:00,48.6,47.5,29.64,South,178,6.0,10.0,96,0.00,,,0.00,Wunderground v.1.15,2013-12-04 01:03:00,
2013-12-03 19:05:00,48.6,47.5,29.64,South,179,4.0,10.0,96,0.00,,,0.00,Wunderground v.1.15,2013-12-04 01:05:00,
2013-12-03 19:06:00,48.6,47.5,29.65,SSE,168,4.0,10.0,96,0.00,,,0.00,Wunderground v.1.15,2013-12-04 01:06:00,
2013-12-03 19:07:00,48.6,47.5,29.65,South,171,6.0,10.0,96,0.00,,,0.00,Wunderground v.1.15,2013-12-04 01:07:00,
2013-12-03 19:08:00,48.6,47.5,29.65,SSW,195,7.0,11.0,96,0.00,,,0.00,Wunderground v.1.15,2013-12-04 01:08:00,
2013-12-03 19:10:00,48.6,47.5,29.65,SSE,159,5.0,8.0,96,0.00,,,0.00,Wunderground v.1.15,2013-12-04 01:10:00,
2013-12-03 19:11:00,48.6,47.5,29.65,South,181,4.0,8.0,96,0.00,,,0.00,Wunderground v.1.15,2013-12-04 01:11:00,
2013-12-03 19:12:00,48.6,47.5,29.65,South,178,9.0,10.0,96,0.00,,,0.00,Wunderground v.1.15,2013-12-04 01:12:00,
2013-12-03 19:13:00,48.6,47.5,29.65,South,182,5.0,10.0,96,0.00,,,0.00,Wunderground v.1.15,2013-12-04 01:13:00,
2013-12-03 19:14:00,48.6,47.5,29.65,SSE,162,3.0,10.0,96,0.00,,,0.00,Wunderground v.1.15,2013-12-04 01:14:00,
2013-12-03 19:15:00,48.6,47.5,29.65,South,189,6.0,10.0,96,0.00,,,0.00,Wunderground v.1.15,2013-12-04 01:15:00,
2013-12-03 19:17:00,48.8,47.7,29.65,SSE,164,5.0,10.0,96,0.00,,,0.00,Wunderground v.1.15,2013-12-04 01:17:00,
2013-12-03 19:19:00,48.8,47.7,29.65,SSW,192,1.0,10.0,96,0.00,,,0.00,Wunderground v.1.15,2013-12-04 01:19:00,
2013-12-03 19:20:00,48.8,47.7,29.65,South,173,4.0,5.0,96,0.00,,,0.00,Wunderground v.1.15,2013-12-04 01:20:00,
2013-12-03 19:21:00,48.8,47.7,29.65,South,175,4.0,5.0,96,0.00,,,0.00,Wunderground v.1.15,2013-12-04 01:21:00,
2013-12-03 19:22:00,48.8,47.7,29.66,South,171,6.0,10.0,96,0.00,,,0.00,Wunderground v.1.15,2013-12-04 01:22:00,
2013-12-03 19:24:00,48.8,47.7,29.66,South,178,7.0,11.0,96,0.00,,,0.00,Wunderground v.1.15,2013-12-04 01:24:00,
2013-12-03 19:25:00,48.8,47.7,29.66,South,185,9.0,11.0,96,0.00,,,0.00,Wunderground v.1.15,2013-12-04 01:25:00,
2013-12-03 19:26:00,48.9,47.8,29.66,SSE,161,5.0,11.0,96,0.00,,,0.00,Wunderground v.1.15,2013-12-04 01:26:00,
2013-12-03 19:27:00,48.9,47.8,29.66,South,170,11.0,11.0,96,0.00,,,0.00,Wunderground v.1.15,2013-12-04 01:27:00,
2013-12-03 19:28:00,48.9,47.8,29.66,SE,146,7.0,11.0,96,0.00,,,0.00,Wunderground v.1.15,2013-12-04 01:28:00,
2013-12-03 19:29:00,48.9,47.8,29.66,SSE,167,9.0,11.0,96,0.00,,,0.00,Wunderground v.1.15,2013-12-04 01:29:00,
2013-12-03 19:30:00,48.9,47.8,29.66,South,174,5.0,6.0,96,0.00,,,0.00,Wunderground v.1.15,2013-12-04 01:30:00,
2013-12-03 19:31:00,48.9,47.8,29.66,SSE,161,5.0,10.0,96,0.00,,,0.00,Wunderground v.1.15,2013-12-04 01:31:00,
2013-12-03 19:33:00,48.9,47.8,29.66,SSW,205,7.0,12.0,96,0.00,,,0.00,Wunderground v.1.15,2013-12-04 01:33:00,
2013-12-03 19:34:00,48.9,47.8,29.66,SSE,157,5.0,12.0,96,0.00,,,0.00,Wunderground v.1.15,2013-12-04 01:34:00,
2013-12-03 19:35:00,48.9,47.8,29.66,SSE,158,8.0,12.0,96,0.00,,,0.00,Wunderground v.1.15,2013-12-04 01:35:00,
2013-12-03 19:36:00,48.9,47.8,29.66,SSW,195,7.0,12.0,96,0.00,,,0.00,Wunderground v.1.15,2013-12-04 01:36:00,
2013-12-03 19:37:00,48.9,47.8,29.66,SSE,158,6.0,12.0,96,0.00,,,0.00,Wunderground v.1.15,2013-12-04 01:37:00,
2013-12-03 19:39:00,48.9,47.8,29.66,South,169,7.0,12.0,96,0.00,,,0.00,Wunderground v.1.15,2013-12-04 01:39:00,
2013-12-03 19:40:00,48.9,47.8,29.66,SSE,154,6.0,8.0,96,0.00,,,0.00,Wunderground v.1.15,2013-12-04 01:40:00,
2013-12-03 19:41:00,48.9,47.8,29.66,South,170,4.0,8.0,96,0.00,,,0.00,Wunderground v.1.15,2013-12-04 01:41:00,
2013-12-03 19:42:00,48.9,47.8,29.66,SSE,157,6.0,8.0,96,0.00,,,0.00,Wunderground v.1.15,2013-12-04 01:42:00,
2013-12-03 19:44:00,48.9,47.8,29.66,South,182,4.0,8.0,96,0.00,,,0.00,Wunderground v.1.15,2013-12-04 01:44:00,
2013-12-03 19:45:00,48.9,47.8,29.66,SSE,157,5.0,8.0,96,0.00,,,0.00,Wunderground v.1.15,2013-12-04 01:45:00,
2013-12-03 19:46:00,48.9,47.8,29.66,South,185,5.0,8.0,96,0.00,,,0.00,Wunderground v.1.15,2013-12-04 01:46:00,
2013-12-03 19:47:00,48.9,47.8,29.66,South,178,3.0,8.0,96,0.00,,,0.00,Wunderground v.1.15,2013-12-04 01:47:00,
2013-12-03 19:49:00,48.8,47.7,29.66,SSW,192,5.0,8.0,96,0.00,,,0.00,Wunderground v.1.15,2013-12-04 01:49:00,
2013-12-03 19:50:00,48.8,47.7,29.66,SSE,167,4.0,6.0,96,0.00,,,0.00,Wunderground v.1.15,2013-12-04 01:50:00,
2013-12-03 19:51:00,48.8,47.7,29.67,South,190,4.0,6.0,96,0.00,,,0.00,Wunderground v.1.15,2013-12-04 01:51:00,
2013-12-03 19:52:00,48.8,47.7,29.67,South,172,2.0,6.0,96,0.00,,,0.00,Wunderground v.1.15,2013-12-04 01:52:00,
2013-12-03 19:53:00,48.8,47.7,29.67,SW,217,3.0,6.0,96,0.00,,,0.00,Wunderground v.1.15,2013-12-04 01:53:00,
2013-12-03 19:55:00,48.8,47.7,29.67,South,175,6.0,7.0,96,0.00,,,0.00,Wunderground v.1.15,2013-12-04 01:55:00,
2013-12-03 19:56:00,48.8,47.7,29.67,SSE,165,6.0,8.0,96,0.00,,,0.00,Wunderground v.1.15,2013-12-04 01:56:00,
2013-12-03 19:57:00,48.8,47.7,29.67,SSE,147,3.0,8.0,96,0.00,,,0.00,Wunderground v.1.15,2013-12-04 01:57:00,
2013-12-03 19:59:00,48.8,47.7,29.67,SSE,165,4.0,8.0,96,0.00,,,0.00,Wunderground v.1.15,2013-12-04 01:59:00,
2013-12-03 20:00:00,48.8,47.7,29.67,SE,139,3.0,4.0,96,0.00,,,0.00,Wunderground v.1.15,2013-12-04 02:00:00,
2013-12-03 20:01:00,48.8,47.7,29.67,South,183,5.0,5.0,96,0.00,,,0.00,Wunderground v.1.15,2013-12-04 02:01:00,
2013-12-03 20:02:00,48.8,47.7,29.67,SSE,157,5.0,7.0,96,0.00,,,0.00,Wunderground v.1.15,2013-12-04 02:02:00,
2013-12-03 20:04:00,48.8,47.7,29.67,South,184,5.0,7.0,96,0.00,,,0.00,Wunderground v.1.15,2013-12-04 02:04:00,
2013-12-03 20:05:00,48.8,47.7,29.67,SSE,165,4.0,7.0,96,0.00,,,0.00,Wunderground v.1.15,2013-12-04 02:05:00,
2013-12-03 20:06:00,48.8,47.7,29.67,SSE,158,7.0,10.0,96,0.00,,,0.00,Wunderground v.1.15,2013-12-04 02:06:00,
2013-12-03 20:07:00,48.8,47.7,29.67,SSE,162,4.0,10.0,96,0.00,,,0.00,Wunderground v.1.15,2013-12-04 02:07:00,
2013-12-03 20:09:00,48.8,47.7,29.67,SSE,163,3.0,10.0,96,0.00,,,0.00,Wunderground v.1.15,2013-12-04 02:09:00,
2013-12-03 20:11:00,48.8,47.7,29.67,South,175,3.0,6.0,96,0.00,,,0.00,Wunderground v.1.15,2013-12-04 02:11:00,
2013-12-03 20:12:00,48.8,47.7,29.67,South,185,4.0,6.0,96,0.00,,,0.00,Wunderground v.1.15,2013-12-04 02:12:00,
2013-12-03 20:15:00,48.8,47.7,29.67,South,175,3.0,6.0,96,0.00,,,0.00,Wunderground v.1.15,2013-12-04 02:15:00,
2013-12-03 20:16:00,48.8,47.7,29.67,South,183,2.0,6.0,96,0.00,,,0.00,Wunderground v.1.15,2013-12-04 02:16:00,
2013-12-03 20:17:00,48.8,47.7,29.67,South,174,2.0,6.0,96,0.00,,,0.00,Wunderground v.1.15,2013-12-04 02:17:00,
2013-12-03 20:18:00,48.8,47.7,29.67,SSE,151,4.0,6.0,96,0.00,,,0.00,Wunderground v.1.15,2013-12-04 02:18:00,
2013-12-03 20:20:00,48.8,47.7,29.67,South,183,4.0,5.0,96,0.00,,,0.00,Wunderground v.1.15,2013-12-04 02:20:00,
2013-12-03 20:21:00,48.8,47.7,29.67,South,180,5.0,5.0,96,0.00,,,0.00,Wunderground v.1.15,2013-12-04 02:21:00,
2013-12-03 20:22:00,48.8,47.7,29.67,SSW,192,4.0,7.0,96,0.00,,,0.00,Wunderground v.1.15,2013-12-04 02:22:00,
2013-12-03 20:23:00,48.8,47.7,29.67,SE,142,5.0,7.0,96,0.00,,,0.00,Wunderground v.1.15,2013-12-04 02:23:00,
2013-12-03 20:24:00,48.8,47.7,29.67,SSE,163,3.0,7.0,96,0.00,,,0.00,Wunderground v.1.15,2013-12-04 02:24:00,
2013-12-03 20:25:00,48.8,47.7,29.67,South,190,2.0,7.0,96,0.00,,,0.00,Wunderground v.1.15,2013-12-04 02:25:00,
2013-12-03 20:27:00,48.8,47.7,29.67,South,175,3.0,7.0,96,0.00,,,0.00,Wunderground v.1.15,2013-12-04 02:27:00,
2013-12-03 20:28:00,48.6,47.5,29.67,SSE,157,3.0,7.0,96,0.00,,,0.00,Wunderground v.1.15,2013-12-04 02:28:00,
2013-12-03 20:29:00,48.8,47.7,29.67,South,169,4.0,7.0,96,0.00,,,0.00,Wunderground v.1.15,2013-12-04 02:29:00,
2013-12-03 20:30:00,48.8,47.7,29.67,SSE,154,6.0,6.0,96,0.00,,,0.00,Wunderground v.1.15,2013-12-04 02:30:00,
2013-12-03 20:33:00,48.8,47.7,29.67,South,171,4.0,7.0,96,0.00,,,0.00,Wunderground v.1.15,2013-12-04 02:33:00,
2013-12-03 20:35:00,48.8,47.7,29.67,SSE,151,9.0,9.0,96,0.00,,,0.00,Wunderground v.1.15,2013-12-04 02:35:00,
2013-12-03 20:38:00,48.8,47.7,29.67,SE,142,6.0,9.0,96,0.00,,,0.00,Wunderground v.1.15,2013-12-04 02:38:00,
2013-12-03 20:39:00,48.8,47.7,29.67,South,185,4.0,9.0,96,0.00,,,0.00,Wunderground v.1.15,2013-12-04 02:39:00,
2013-12-03 20:40:00,48.8,47.7,29.67,SSE,165,4.0,6.0,96,0.00,,,0.00,Wunderground v.1.15,2013-12-04 02:40:00,
2013-12-03 20:41:00,48.8,47.7,29.67,South,187,4.0,6.0,96,0.00,,,0.00,Wunderground v.1.15,2013-12-04 02:41:00,
2013-12-03 20:43:00,48.8,47.7,29.67,South,174,4.0,6.0,96,0.00,,,0.00,Wunderground v.1.15,2013-12-04 02:43:00,
2013-12-03 20:44:00,48.8,47.7,29.67,SSE,165,5.0,7.0,96,0.00,,,0.00,Wunderground v.1.15,2013-12-04 02:44:00,
2013-12-03 20:46:00,48.8,47.7,29.67,South,171,4.0,7.0,96,0.00,,,0.00,Wunderground v.1.15,2013-12-04 02:46:00,
2013-12-03 20:49:00,48.8,47.7,29.67,SSE,163,3.0,7.0,96,0.00,,,0.00,Wunderground v.1.15,2013-12-04 02:49:00,
2013-12-03 20:50:00,48.8,47.7,29.67,South,175,5.0,6.0,96,0.00,,,0.00,Wunderground v.1.15,2013-12-04 02:50:00,
2013-12-03 20:51:00,48.8,47.7,29.67,SSE,159,4.0,6.0,96,0.00,,,0.00,Wunderground v.1.15,2013-12-04 02:51:00,
2013-12-03 20:53:00,48.8,47.7,29.67,South,173,4.0,6.0,96,0.00,,,0.00,Wunderground v.1.15,2013-12-04 02:53:00,
2013-12-03 20:54:00,48.8,47.7,29.67,SSE,155,5.0,7.0,96,0.00,,,0.00,Wunderground v.1.15,2013-12-04 02:54:00,
2013-12-03 20:55:00,48.8,47.7,29.67,South,171,4.0,7.0,96,0.00,,,0.00,Wunderground v.1.15,2013-12-04 02:55:00,
2013-12-03 20:56:00,48.8,47.7,29.67,South,184,3.0,7.0,96,0.00,,,0.00,Wunderground v.1.15,2013-12-04 02:56:00,
2013-12-03 20:58:00,48.8,47.7,29.67,South,175,5.0,7.0,96,0.00,,,0.00,Wunderground v.1.15,2013-12-04 02:58:00,
2013-12-03 21:00:00,48.8,47.7,29.67,SSE,157,3.0,5.0,96,0.00,,,0.00,Wunderground v.1.15,2013-12-04 03:00:00,
2013-12-03 21:01:00,48.8,48.0,29.67,SSE,151,3.0,6.0,97,0.00,,,0.00,Wunderground v.1.15,2013-12-04 03:01:00,
2013-12-03 21:02:00,48.8,48.0,29.67,SSE,158,3.0,6.0,97,0.00,,,0.00,Wunderground v.1.15,2013-12-04 03:02:00,
2013-12-03 21:03:00,48.8,47.7,29.67,South,172,2.0,6.0,96,0.00,,,0.00,Wunderground v.1.15,2013-12-04 03:03:00,
2013-12-03 21:05:00,48.8,47.7,29.67,South,183,4.0,7.0,96,0.00,,,0.00,Wunderground v.1.15,2013-12-04 03:05:00,
2013-12-03 21:06:00,48.8,48.0,29.67,SSE,165,3.0,7.0,97,0.00,,,0.00,Wunderground v.1.15,2013-12-04 03:06:00,
2013-12-03 21:07:00,48.8,47.7,29.68,SSE,150,4.0,7.0,96,0.00,,,0.00,Wunderground v.1.15,2013-12-04 03:07:00,
2013-12-03 21:08:00,48.8,47.7,29.68,SSE,156,2.0,7.0,96,0.00,,,0.00,Wunderground v.1.15,2013-12-04 03:08:00,
2013-12-03 21:10:00,48.8,48.0,29.68,SSE,155,4.0,4.0,97,0.00,,,0.00,Wunderground v.1.15,2013-12-04 03:10:00,
2013-12-03 21:11:00,48.8,48.0,29.68,South,178,4.0,6.0,97,0.00,,,0.00,Wunderground v.1.15,2013-12-04 03:11:00,
2013-12-03 21:12:00,48.8,47.7,29.68,SSE,152,3.0,6.0,96,0.00,,,0.00,Wunderground v.1.15,2013-12-04 03:12:00,
2013-12-03 21:13:00,48.8,47.7,29.68,SSE,161,6.0,6.0,96,0.00,,,0.00,Wunderground v.1.15,2013-12-04 03:13:00,
2013-12-03 21:16:00,48.8,48.0,29.68,SSE,157,3.0,6.0,97,0.00,,,0.00,Wunderground v.1.15,2013-12-04 03:16:00,
2013-12-03 21:17:00,48.8,48.0,29.68,SSE,165,3.0,6.0,97,0.00,,,0.00,Wunderground v.1.15,2013-12-04 03:17:00,
2013-12-03 21:18:00,48.8,47.7,29.68,SSE,161,2.0,6.0,96,0.00,,,0.00,Wunderground v.1.15,2013-12-04 03:18:00,
2013-12-03 21:19:00,48.8,47.7,29.68,SSE,161,2.0,6.0,96,0.00,,,0.00,Wunderground v.1.15,2013-12-04 03:19:00,
2013-12-03 21:21:00,48.8,48.0,29.68,South,173,3.0,5.0,97,0.00,,,0.00,Wunderground v.1.15,2013-12-04 03:21:00,
2013-12-03 21:22:00,48.8,48.0,29.68,SSE,157,4.0,5.0,97,0.00,,,0.00,Wunderground v.1.15,2013-12-04 03:22:00,
2013-12-03 21:23:00,48.8,48.0,29.68,SSW,197,4.0,6.0,97,0.00,,,0.00,Wunderground v.1.15,2013-12-04 03:23:00,
2013-12-03 21:24:00,48.8,48.0,29.68,SSE,159,4.0,6.0,97,0.00,,,0.00,Wunderground v.1.15,2013-12-04 03:24:00,
2013-12-03 21:25:00,48.8,48.0,29.68,SSE,166,3.0,6.0,97,0.00,,,0.00,Wunderground v.1.15,2013-12-04 03:25:00,
2013-12-03 21:27:00,48.8,48.0,29.68,South,182,3.0,6.0,97,0.00,,,0.00,Wunderground v.1.15,2013-12-04 03:27:00,
2013-12-03 21:28:00,48.8,48.0,29.68,South,187,2.0,6.0,97,0.00,,,0.00,Wunderground v.1.15,2013-12-04 03:28:00,
2013-12-03 21:29:00,48.8,48.0,29.68,SSE,164,3.0,6.0,97,0.00,,,0.00,Wunderground v.1.15,2013-12-04 03:29:00,
2013-12-03 21:30:00,48.8,48.0,29.68,SSE,153,2.0,3.0,97,0.00,,,0.00,Wunderground v.1.15,2013-12-04 03:30:00,
2013-12-03 21:32:00,48.8,48.0,29.68,South,171,4.0,5.0,97,0.00,,,0.00,Wunderground v.1.15,2013-12-04 03:32:00,
2013-12-03 21:33:00,48.6,47.8,29.68,South,188,5.0,6.0,97,0.00,,,0.00,Wunderground v.1.15,2013-12-04 03:33:00,
2013-12-03 21:34:00,48.8,48.0,29.68,SSE,163,3.0,6.0,97,0.00,,,0.00,Wunderground v.1.15,2013-12-04 03:34:00,
2013-12-03 21:35:00,48.8,48.0,29.68,SE,146,3.0,6.0,97,0.00,,,0.00,Wunderground v.1.15,2013-12-04 03:35:00,
2013-12-03 21:37:00,48.8,48.0,29.68,SSE,158,3.0,6.0,97,0.00,,,0.00,Wunderground v.1.15,2013-12-04 03:37:00,
2013-12-03 21:38:00,48.8,48.0,29.68,SE,142,4.0,6.0,97,0.00,,,0.00,Wunderground v.1.15,2013-12-04 03:38:00,
2013-12-03 21:39:00,48.6,47.8,29.68,SE,144,4.0,6.0,97,0.00,,,0.00,Wunderground v.1.15,2013-12-04 03:39:00,
2013-12-03 21:41:00,48.6,47.8,29.68,SSE,150,6.0,7.0,97,0.00,,,0.00,Wunderground v.1.15,2013-12-04 03:41:00,
2013-12-03 21:42:00,48.6,47.8,29.68,SE,142,6.0,7.0,97,0.00,,,0.00,Wunderground v.1.15,2013-12-04 03:42:00,
2013-12-03 21:43:00,48.6,47.8,29.68,SSE,159,4.0,7.0,97,0.00,,,0.00,Wunderground v.1.15,2013-12-04 03:43:00,
2013-12-03 21:44:00,48.8,48.0,29.68,SSE,155,4.0,7.0,97,0.00,,,0.00,Wunderground v.1.15,2013-12-04 03:44:00,
2013-12-03 21:45:00,48.8,48.0,29.68,SSE,162,3.0,8.0,97,0.00,,,0.00,Wunderground v.1.15,2013-12-04 03:45:00,
2013-12-03 21:46:00,48.6,47.8,29.68,SE,132,7.0,8.0,97,0.00,,,0.00,Wunderground v.1.15,2013-12-04 03:46:00,
2013-12-03 21:48:00,48.6,47.8,29.68,South,172,7.0,8.0,97,0.00,,,0.00,Wunderground v.1.15,2013-12-04 03:48:00,
2013-12-03 21:49:00,48.6,47.8,29.68,SSE,155,4.0,8.0,97,0.00,,,0.00,Wunderground v.1.15,2013-12-04 03:49:00,
2013-12-03 21:50:00,48.6,47.8,29.68,South,181,5.0,8.0,97,0.00,,,0.00,Wunderground v.1.15,2013-12-04 03:50:00,
2013-12-03 21:52:00,48.6,47.8,29.67,SSE,158,6.0,8.0,97,0.00,,,0.00,Wunderground v.1.15,2013-12-04 03:52:00,
2013-12-03 21:53:00,48.6,47.8,29.67,SSE,168,6.0,8.0,97,0.00,,,0.00,Wunderground v.1.15,2013-12-04 03:53:00,
2013-12-03 21:55:00,48.6,47.8,29.67,SSE,155,4.0,8.0,97,0.00,,,0.00,Wunderground v.1.15,2013-12-04 03:55:00,
2013-12-03 21:57:00,48.6,47.8,29.67,South,173,4.0,8.0,97,0.00,,,0.00,Wunderground v.1.15,2013-12-04 03:57:00,
2013-12-03 21:59:00,48.6,47.8,29.67,SSE,159,4.0,8.0,97,0.00,,,0.00,Wunderground v.1.15,2013-12-04 03:59:00,
2013-12-03 22:00:00,48.6,47.8,29.67,SSE,154,3.0,5.0,97,0.00,,,0.00,Wunderground v.1.15,2013-12-04 04:00:00,
2013-12-03 22:02:00,48.6,47.8,29.67,SSE,153,6.0,7.0,97,0.00,,,0.00,Wunderground v.1.15,2013-12-04 04:02:00,
2013-12-03 22:04:00,48.6,47.8,29.67,SE,146,4.0,7.0,97,0.00,,,0.00,Wunderground v.1.15,2013-12-04 04:04:00,
2013-12-03 22:05:00,48.6,47.8,29.67,SSE,162,7.0,9.0,97,0.00,,,0.00,Wunderground v.1.15,2013-12-04 04:05:00,
2013-12-03 22:06:00,48.6,47.8,29.67,SSE,163,6.0,9.0,97,0.00,,,0.00,Wunderground v.1.15,2013-12-04 04:06:00,
2013-12-03 22:07:00,48.6,47.8,29.66,SSE,156,5.0,9.0,97,0.00,,,0.00,Wunderground v.1.15,2013-12-04 04:07:00,
2013-12-03 22:09:00,48.6,47.8,29.66,SSE,159,3.0,9.0,97,0.00,,,0.00,Wunderground v.1.15,2013-12-04 04:09:00,
2013-12-03 22:10:00,48.6,47.8,29.66,South,180,5.0,7.0,97,0.00,,,0.00,Wunderground v.1.15,2013-12-04 04:10:00,
2013-12-03 22:11:00,48.6,47.8,29.66,SSE,157,6.0,7.0,97,0.00,,,0.00,Wunderground v.1.15,2013-12-04 04:11:00,
2013-12-03 22:13:00,48.6,47.8,29.66,SSE,155,3.0,10.0,97,0.00,,,0.00,Wunderground v.1.15,2013-12-04 04:13:00,
2013-12-03 22:15:00,48.5,47.7,29.66,SE,131,5.0,10.0,97,0.00,,,0.00,Wunderground v.1.15,2013-12-04 04:15:00,
2013-12-03 22:16:00,48.5,47.7,29.66,SSE,152,2.0,10.0,97,0.00,,,0.00,Wunderground v.1.15,2013-12-04 04:16:00,
2013-12-03 22:18:00,48.5,47.7,29.66,SE,126,6.0,10.0,97,0.00,,,0.00,Wunderground v.1.15,2013-12-04 04:18:00,
2013-12-03 22:21:00,48.5,47.7,29.66,SSE,158,5.0,9.0,97,0.00,,,0.00,Wunderground v.1.15,2013-12-04 04:21:00,
2013-12-03 22:22:00,48.5,47.7,29.66,SSE,156,6.0,9.0,97,0.00,,,0.00,Wunderground v.1.15,2013-12-04 04:22:00,
2013-12-03 22:23:00,48.5,47.7,29.66,SSE,154,5.0,9.0,97,0.00,,,0.00,Wunderground v.1.15,2013-12-04 04:23:00,
2013-12-03 22:24:00,48.5,47.7,29.66,South,169,6.0,9.0,97,0.00,,,0.00,Wunderground v.1.15,2013-12-04 04:24:00,
2013-12-03 22:26:00,48.5,47.7,29.66,SSE,150,3.0,9.0,97,0.00,,,0.00,Wunderground v.1.15,2013-12-04 04:26:00,
2013-12-03 22:27:00,48.5,47.7,29.66,SSE,147,4.0,9.0,97,0.00,,,0.00,Wunderground v.1.15,2013-12-04 04:27:00,
2013-12-03 22:28:00,48.3,47.5,29.66,SSE,159,3.0,9.0,97,0.00,,,0.00,Wunderground v.1.15,2013-12-04 04:28:00,
2013-12-03 22:29:00,48.3,47.5,29.66,SE,144,5.0,9.0,97,0.00,,,0.00,Wunderground v.1.15,2013-12-04 04:29:00,
2013-12-03 22:31:00,48.3,47.5,29.66,SSE,150,5.0,5.0,97,0.00,,,0.00,Wunderground v.1.15,2013-12-04 04:31:00,
2013-12-03 22:32:00,48.3,47.5,29.66,SSE,163,4.0,7.0,97,0.00,,,0.00,Wunderground v.1.15,2013-12-04 04:32:00,
2013-12-03 22:33:00,48.5,47.7,29.66,SSE,155,6.0,8.0,97,0.00,,,0.00,Wunderground v.1.15,2013-12-04 04:33:00,
2013-12-03 22:35:00,48.5,47.7,29.66,SSE,160,4.0,8.0,97,0.00,,,0.00,Wunderground v.1.15,2013-12-04 04:35:00,
2013-12-03 22:36:00,48.5,47.7,29.66,SSE,155,7.0,9.0,97,0.00,,,0.00,Wunderground v.1.15,2013-12-04 04:36:00,
2013-12-03 22:37:00,48.5,47.7,29.65,SSE,157,5.0,9.0,97,0.00,,,0.00,Wunderground v.1.15,2013-12-04 04:37:00,
2013-12-03 22:38:00,48.5,47.7,29.65,SSE,168,3.0,9.0,97,0.00,,,0.00,Wunderground v.1.15,2013-12-04 04:38:00,
2013-12-03 22:39:00,48.5,47.7,29.65,SSE,157,2.0,9.0,97,0.00,,,0.00,Wunderground v.1.15,2013-12-04 04:39:00,
2013-12-03 22:40:00,48.5,47.7,29.65,SSE,164,3.0,5.0,97,0.00,,,0.00,Wunderground v.1.15,2013-12-04 04:40:00,
2013-12-03 22:41:00,48.5,47.7,29.65,SSE,153,5.0,5.0,97,0.00,,,0.00,Wunderground v.1.15,2013-12-04 04:41:00,
2013-12-03 22:43:00,48.5,47.7,29.65,South,180,6.0,8.0,97,0.00,,,0.00,Wunderground v.1.15,2013-12-04 04:43:00,
2013-12-03 22:44:00,48.5,47.7,29.65,South,169,3.0,8.0,97,0.00,,,0.00,Wunderground v.1.15,2013-12-04 04:44:00,
2013-12-03 22:46:00,48.5,47.7,29.65,SE,141,4.0,8.0,97,0.00,,,0.00,Wunderground v.1.15,2013-12-04 04:46:00,
2013-12-03 22:48:00,48.5,47.7,29.65,SSE,149,6.0,9.0,97,0.00,,,0.00,Wunderground v.1.15,2013-12-04 04:48:00,
2013-12-03 22:49:00,48.5,47.7,29.65,South,171,5.0,9.0,97,0.00,,,0.00,Wunderground v.1.15,2013-12-04 04:49:00,
2013-12-03 22:51:00,48.5,47.7,29.65,SSE,158,5.0,6.0,97,0.00,,,0.00,Wunderground v.1.15,2013-12-04 04:51:00,
2013-12-03 22:53:00,48.3,47.5,29.65,SSE,161,3.0,7.0,97,0.00,,,0.00,Wunderground v.1.15,2013-12-04 04:53:00,
2013-12-03 22:54:00,48.3,47.5,29.65,SSE,161,3.0,7.0,97,0.00,,,0.00,Wunderground v.1.15,2013-12-04 04:54:00,
2013-12-03 22:56:00,48.3,47.5,29.65,SSE,151,7.0,7.0,97,0.00,,,0.00,Wunderground v.1.15,2013-12-04 04:56:00,
2013-12-03 22:58:00,48.3,47.5,29.65,South,179,3.0,8.0,97,0.00,,,0.00,Wunderground v.1.15,2013-12-04 04:58:00,
2013-12-03 22:59:00,48.3,47.5,29.65,SSE,150,5.0,8.0,97,0.00,,,0.00,Wunderground v.1.15,2013-12-04 04:59:00,
2013-12-03 23:01:00,48.3,47.5,29.65,SSE,152,5.0,8.0,97,0.00,,,0.00,Wunderground v.1.15,2013-12-04 05:01:00,
2013-12-03 23:02:00,48.3,47.5,29.65,SSE,157,6.0,10.0,97,0.00,,,0.00,Wunderground v.1.15,2013-12-04 05:02:00,
2013-12-03 23:06:00,48.2,47.4,29.65,SSE,155,2.0,10.0,97,0.00,,,0.00,Wunderground v.1.15,2013-12-04 05:06:00,
2013-12-03 23:07:00,48.2,47.1,29.66,SSE,159,4.0,10.0,96,0.00,,,0.00,Wunderground v.1.15,2013-12-04 05:07:00,
2013-12-03 23:11:00,48.2,47.4,29.66,SSE,152,4.0,4.0,97,0.00,,,0.00,Wunderground v.1.15,2013-12-04 05:11:00,
2013-12-03 23:12:00,48.0,46.9,29.66,SE,142,3.0,4.0,96,0.00,,,0.00,Wunderground v.1.15,2013-12-04 05:12:00,
2013-12-03 23:16:00,48.0,46.9,29.66,South,177,4.0,7.0,96,0.00,,,0.00,Wunderground v.1.15,2013-12-04 05:16:00,
2013-12-03 23:17:00,48.0,47.2,29.66,South,181,3.0,7.0,97,0.00,,,0.00,Wunderground v.1.15,2013-12-04 05:17:00,
2013-12-03 23:21:00,48.0,47.2,29.66,SSE,157,4.0,5.0,97,0.00,,,0.00,Wunderground v.1.15,2013-12-04 05:21:00,
2013-12-03 23:22:00,48.0,47.2,29.66,SSE,153,3.0,5.0,97,0.00,,,0.00,Wunderground v.1.15,2013-12-04 05:22:00,
2013-12-03 23:23:00,47.9,47.1,29.66,SE,144,4.0,6.0,97,0.00,,,0.00,Wunderground v.1.15,2013-12-04 05:23:00,
2013-12-03 23:27:00,47.9,46.8,29.66,SSE,154,4.0,7.0,96,0.00,,,0.00,Wunderground v.1.15,2013-12-04 05:27:00,
2013-12-03 23:28:00,47.7,46.9,29.66,SSE,165,3.0,7.0,97,0.00,,,0.00,Wunderground v.1.15,2013-12-04 05:28:00,
2013-12-03 23:29:00,47.7,46.6,29.66,SSE,165,3.0,7.0,96,0.00,,,0.00,Wunderground v.1.15,2013-12-04 05:29:00,
2013-12-03 23:32:00,47.7,46.9,29.66,SSE,148,5.0,5.0,97,0.00,,,0.00,Wunderground v.1.15,2013-12-04 05:32:00,
2013-12-03 23:33:00,47.7,46.9,29.66,SSE,156,4.0,6.0,97,0.00,,,0.00,Wunderground v.1.15,2013-12-04 05:33:00,
2013-12-03 23:35:00,47.7,46.9,29.66,SSE,167,3.0,6.0,97,0.00,,,0.00,Wunderground v.1.15,2013-12-04 05:35:00,
2013-12-03 23:37:00,47.6,46.5,29.66,South,173,2.0,6.0,96,0.00,,,0.00,Wunderground v.1.15,2013-12-04 05:37:00,
2013-12-03 23:38:00,47.6,46.8,29.66,SSE,153,5.0,6.0,97,0.00,,,0.00,Wunderground v.1.15,2013-12-04 05:38:00,
2013-12-03 23:39:00,47.6,46.8,29.66,SSE,159,3.0,6.0,97,0.00,,,0.00,Wunderground v.1.15,2013-12-04 05:39:00,
2013-12-03 23:40:00,47.6,46.8,29.66,SSE,158,4.0,4.0,97,0.00,,,0.00,Wunderground v.1.15,2013-12-04 05:40:00,
2013-12-03 23:42:00,47.6,46.8,29.66,SSE,148,3.0,5.0,97,0.00,,,0.00,Wunderground v.1.15,2013-12-04 05:42:00,
2013-12-03 23:43:00,47.6,46.8,29.66,SSE,147,5.0,5.0,97,0.00,,,0.00,Wunderground v.1.15,2013-12-04 05:43:00,
2013-12-03 23:44:00,47.6,46.8,29.66,SSE,147,4.0,5.0,97,0.00,,,0.00,Wunderground v.1.15,2013-12-04 05:44:00,
2013-12-03 23:45:00,47.6,46.8,29.66,SSE,148,1.0,5.0,97,0.00,,,0.00,Wunderground v.1.15,2013-12-04 05:45:00,
2013-12-03 23:46:00,47.6,46.8,29.66,SSE,147,3.0,5.0,97,0.00,,,0.00,Wunderground v.1.15,2013-12-04 05:46:00,
2013-12-03 23:47:00,47.6,46.8,29.66,SSE,151,4.0,5.0,97,0.00,,,0.00,Wunderground v.1.15,2013-12-04 05:47:00,
2013-12-03 23:48:00,47.4,46.6,29.66,SSE,168,3.0,5.0,97,0.00,,,0.00,Wunderground v.1.15,2013-12-04 05:48:00,
2013-12-03 23:49:00,47.4,46.6,29.66,SSE,167,3.0,5.0,97,0.00,,,0.00,Wunderground v.1.15,2013-12-04 05:49:00,
2013-12-03 23:50:00,47.4,46.6,29.66,SSE,148,4.0,4.0,97,0.00,,,0.00,Wunderground v.1.15,2013-12-04 05:50:00,
2013-12-03 23:51:00,47.4,46.6,29.66,SSE,150,4.0,8.0,97,0.00,,,0.00,Wunderground v.1.15,2013-12-04 05:51:00,
2013-12-03 23:52:00,47.4,46.6,29.66,SE,145,7.0,8.0,97,0.00,,,0.00,Wunderground v.1.15,2013-12-04 05:52:00,
2013-12-03 23:54:00,47.4,46.6,29.66,SE,141,2.0,8.0,97,0.00,,,0.00,Wunderground v.1.15,2013-12-04 05:54:00,
2013-12-03 23:55:00,47.4,46.6,29.66,SSE,148,4.0,8.0,97,0.00,,,0.00,Wunderground v.1.15,2013-12-04 05:55:00,
2013-12-03 23:56:00,47.4,46.6,29.66,SSE,155,3.0,8.0,97,0.00,,,0.00,Wunderground v.1.15,2013-12-04 05:56:00,
2013-12-03 23:57:00,47.4,46.6,29.66,SE,146,4.0,8.0,97,0.00,,,0.00,Wunderground v.1.15,2013-12-04 05:57:00,
2013-12-03 23:59:00,47.3,46.5,29.66,SSE,150,7.0,8.0,97,0.00,,,0.00,Wunderground v.1.15,2013-12-04 05:59:00,